Time,TemperatureF,DewpointF,PressureIn,WindDirection,WindDirectionDegrees,WindSpeedMPH,WindSpeedGustMPH,Humidity,HourlyPrecipIn,Conditions,Clouds,dailyrainin,SoftwareType,DateUTC
2013-03-16 00:00:00,42.6,32.8,28.24,ENE,69,0.0,0.9,68,0.00,,---,0.00,VWS V14.01,2013-03-16 04:00:00,
2013-03-16 00:01:00,42.6,32.7,29.04,ENE,69,0.0,4.0,68,0.00,,,0.00,meteohub,2013-03-16 04:01:00,
2013-03-16 00:05:00,42.8,32.6,28.24,ENE,69,0.0,0.0,67,0.00,,---,0.00,VWS V14.01,2013-03-16 04:05:00,
2013-03-16 00:07:00,43.0,32.7,29.04,NNE,31,0.0,4.0,67,0.00,,,0.00,meteohub,2013-03-16 04:07:00,
2013-03-16 00:10:00,43.0,32.8,28.24,NNE,31,0.0,0.0,67,0.00,,---,0.00,VWS V14.01,2013-03-16 04:10:00,
2013-03-16 00:15:00,43.2,33.4,28.24,WNW,292,0.9,0.9,68,0.00,,---,0.00,VWS V14.01,2013-03-16 04:15:00,
2013-03-16 00:20:00,43.2,33.0,28.24,SE,144,0.9,0.9,67,0.00,,---,0.00,VWS V14.01,2013-03-16 04:20:00,
2013-03-16 00:25:00,43.3,33.1,28.24,ESE,103,0.9,0.9,67,0.00,,---,0.00,VWS V14.01,2013-03-16 04:25:00,
2013-03-16 00:30:00,43.3,33.5,28.24,NNW,344,0.9,0.9,68,0.00,,---,0.00,VWS V14.01,2013-03-16 04:30:00,
2013-03-16 00:35:00,43.5,33.7,28.24,NNE,27,0.9,0.9,68,0.00,,---,0.00,VWS V14.01,2013-03-16 04:35:00,
2013-03-16 00:40:00,43.5,33.7,28.25,North,351,0.9,0.9,68,0.00,,---,0.00,VWS V14.01,2013-03-16 04:40:00,
2013-03-16 00:45:00,43.5,33.7,28.25,NW,304,0.9,0.9,68,0.00,,---,0.00,VWS V14.01,2013-03-16 04:45:00,
2013-03-16 00:50:00,43.7,33.5,28.25,West,280,0.9,0.9,67,0.00,,---,0.00,VWS V14.01,2013-03-16 04:50:00,
2013-03-16 00:55:00,43.7,33.8,28.25,SSW,203,0.9,0.9,68,0.00,,---,0.00,VWS V14.01,2013-03-16 04:55:00,
2013-03-16 01:00:00,43.7,33.5,28.24,SSW,203,0.9,0.9,67,0.00,,---,0.00,VWS V14.01,2013-03-16 05:00:00,
2013-03-16 01:01:00,43.9,34.0,28.24,SSW,203,0.9,0.9,68,0.00,,---,0.00,VWS V14.01,2013-03-16 05:01:00,
2013-03-16 01:05:00,43.9,34.0,28.24,SSW,203,0.0,0.0,68,0.00,,---,0.00,VWS V14.01,2013-03-16 05:05:00,
2013-03-16 01:06:00,43.9,34.0,28.24,SSW,203,0.0,0.0,68,0.00,,---,0.00,VWS V14.01,2013-03-16 05:06:00,
2013-03-16 01:10:00,43.9,34.0,28.24,SSW,203,0.0,0.0,68,0.00,,---,0.00,VWS V14.01,2013-03-16 05:10:00,
2013-03-16 01:11:00,43.9,34.0,28.24,SSW,203,0.0,0.0,68,0.00,,---,0.00,VWS V14.01,2013-03-16 05:11:00,
2013-03-16 01:15:00,43.7,33.8,28.24,SSW,203,0.0,0.0,68,0.00,,---,0.00,VWS V14.01,2013-03-16 05:15:00,
2013-03-16 01:16:00,43.7,33.8,28.24,SSW,203,0.0,0.0,68,0.00,,---,0.00,VWS V14.01,2013-03-16 05:16:00,
2013-03-16 01:20:00,43.5,33.7,28.24,NNW,334,0.9,0.9,68,0.00,,---,0.00,VWS V14.01,2013-03-16 05:20:00,
2013-03-16 01:21:00,43.5,33.7,28.24,NNW,334,0.9,0.9,68,0.00,,---,0.00,VWS V14.01,2013-03-16 05:21:00,
2013-03-16 01:25:00,43.5,33.7,28.24,NNW,340,0.9,0.9,68,0.00,,---,0.00,VWS V14.01,2013-03-16 05:25:00,
2013-03-16 01:26:00,43.5,33.7,28.24,NNW,340,0.9,0.9,68,0.00,,---,0.00,VWS V14.01,2013-03-16 05:26:00,
2013-03-16 01:27:00,43.5,33.7,28.24,WNW,302,0.9,0.9,68,0.00,,---,0.00,VWS V14.01,2013-03-16 05:27:00,
2013-03-16 01:30:00,43.3,33.5,28.24,WNW,302,0.0,0.0,68,0.00,,---,0.00,VWS V14.01,2013-03-16 05:30:00,
2013-03-16 01:31:00,43.3,33.5,28.24,WNW,302,0.0,0.0,68,0.00,,---,0.00,VWS V14.01,2013-03-16 05:31:00,
2013-03-16 01:32:00,43.5,33.7,28.24,WNW,302,0.0,0.0,68,0.00,,---,0.00,VWS V14.01,2013-03-16 05:32:00,
2013-03-16 01:35:00,43.3,33.5,28.25,SSW,201,0.9,0.9,68,0.00,,---,0.00,VWS V14.01,2013-03-16 05:35:00,
2013-03-16 01:36:00,43.3,33.5,28.25,SSW,201,0.9,0.9,68,0.00,,---,0.00,VWS V14.01,2013-03-16 05:36:00,
2013-03-16 01:37:00,43.3,33.5,28.25,SSW,201,0.0,0.9,68,0.00,,---,0.00,VWS V14.01,2013-03-16 05:37:00,
2013-03-16 01:41:00,43.3,33.5,28.25,SSW,201,0.0,0.0,68,0.00,,---,0.00,VWS V14.01,2013-03-16 05:41:00,
2013-03-16 01:42:00,43.3,33.5,28.25,SSW,201,0.0,0.0,68,0.00,,---,0.00,VWS V14.01,2013-03-16 05:42:00,
2013-03-16 01:46:00,43.3,33.5,28.25,North,350,0.0,0.0,68,0.00,,---,0.00,VWS V14.01,2013-03-16 05:46:00,
2013-03-16 01:47:00,43.3,33.5,28.25,North,350,0.0,0.0,68,0.00,,---,0.00,VWS V14.01,2013-03-16 05:47:00,
2013-03-16 01:51:00,43.3,33.8,28.25,North,350,0.0,0.0,69,0.00,,---,0.00,VWS V14.01,2013-03-16 05:51:00,
2013-03-16 01:52:00,43.3,33.8,28.25,North,350,0.0,0.0,69,0.00,,---,0.00,VWS V14.01,2013-03-16 05:52:00,
2013-03-16 01:56:00,43.3,33.8,28.25,North,350,0.0,0.0,69,0.00,,---,0.00,VWS V14.01,2013-03-16 05:56:00,
2013-03-16 01:57:00,43.3,33.8,28.25,North,350,0.0,0.0,69,0.00,,---,0.00,VWS V14.01,2013-03-16 05:57:00,
2013-03-16 01:58:00,43.3,33.8,28.25,North,350,0.0,0.0,69,0.00,,---,0.00,VWS V14.01,2013-03-16 05:58:00,
2013-03-16 02:02:00,43.2,33.7,28.25,North,350,0.0,0.0,69,0.00,,---,0.00,VWS V14.01,2013-03-16 06:02:00,
2013-03-16 02:03:00,43.2,33.7,28.25,North,350,0.0,0.0,69,0.00,,---,0.00,VWS V14.01,2013-03-16 06:03:00,
2013-03-16 02:07:00,43.2,33.7,28.25,NNE,17,0.9,0.9,69,0.00,,---,0.00,VWS V14.01,2013-03-16 06:07:00,
2013-03-16 02:08:00,43.2,33.7,28.25,NNE,17,0.9,0.9,69,0.00,,---,0.00,VWS V14.01,2013-03-16 06:08:00,
2013-03-16 02:12:00,43.2,33.7,28.25,North,0,0.9,0.9,69,0.00,,---,0.00,VWS V14.01,2013-03-16 06:12:00,
2013-03-16 02:13:00,43.2,33.7,28.25,NE,44,0.9,0.9,69,0.00,,---,0.00,VWS V14.01,2013-03-16 06:13:00,
2013-03-16 02:17:00,43.2,33.7,28.25,NE,44,0.9,0.9,69,0.00,,---,0.00,VWS V14.01,2013-03-16 06:17:00,
2013-03-16 02:18:00,43.2,33.7,28.25,WNW,289,0.9,0.9,69,0.00,,---,0.00,VWS V14.01,2013-03-16 06:18:00,
2013-03-16 02:22:00,43.2,33.4,28.25,NE,34,0.9,0.9,68,0.00,,---,0.00,VWS V14.01,2013-03-16 06:22:00,
2013-03-16 02:23:00,43.2,33.7,28.25,NE,34,0.9,0.9,69,0.00,,---,0.00,VWS V14.01,2013-03-16 06:23:00,
2013-03-16 02:27:00,43.2,33.4,28.25,North,355,0.9,0.9,68,0.00,,---,0.00,VWS V14.01,2013-03-16 06:27:00,
2013-03-16 02:28:00,43.2,33.4,28.25,NE,36,0.9,0.9,68,0.00,,---,0.00,VWS V14.01,2013-03-16 06:28:00,
2013-03-16 02:32:00,43.2,33.4,28.25,North,5,0.9,0.9,68,0.00,,---,0.00,VWS V14.01,2013-03-16 06:32:00,
2013-03-16 02:33:00,43.2,33.4,28.25,NNE,27,0.9,0.9,68,0.00,,---,0.00,VWS V14.01,2013-03-16 06:33:00,
2013-03-16 02:37:00,43.0,33.2,28.25,NNE,19,2.0,2.0,68,0.00,,---,0.00,VWS V14.01,2013-03-16 06:37:00,
2013-03-16 02:38:00,43.0,33.5,28.25,NNE,28,0.9,2.0,69,0.00,,---,0.00,VWS V14.01,2013-03-16 06:38:00,
2013-03-16 02:42:00,43.0,33.5,28.25,NNE,13,0.9,2.0,69,0.00,,---,0.00,VWS V14.01,2013-03-16 06:42:00,
2013-03-16 02:43:00,43.0,33.2,28.26,NNE,25,0.9,2.0,68,0.00,,---,0.00,VWS V14.01,2013-03-16 06:43:00,
2013-03-16 02:47:00,43.0,33.5,28.26,North,9,0.9,2.0,69,0.00,,---,0.00,VWS V14.01,2013-03-16 06:47:00,
2013-03-16 02:48:00,43.0,33.5,28.26,West,259,2.0,2.0,69,0.00,,---,0.00,VWS V14.01,2013-03-16 06:48:00,
2013-03-16 02:52:00,42.8,33.0,28.26,North,351,2.0,2.0,68,0.00,,---,0.00,VWS V14.01,2013-03-16 06:52:00,
2013-03-16 02:53:00,42.8,33.0,28.26,North,5,2.0,2.0,68,0.00,,---,0.00,VWS V14.01,2013-03-16 06:53:00,
2013-03-16 02:58:00,42.6,33.2,28.26,NE,53,2.0,2.0,69,0.00,,---,0.00,VWS V14.01,2013-03-16 06:58:00,
2013-03-16 03:03:00,42.4,33.0,28.26,NNE,17,2.0,2.0,69,0.00,,---,0.00,VWS V14.01,2013-03-16 07:03:00,
2013-03-16 03:08:00,42.4,32.6,28.26,North,5,2.0,2.0,68,0.00,,---,0.00,VWS V14.01,2013-03-16 07:08:00,
2013-03-16 03:12:00,42.3,32.5,28.26,NNE,28,2.9,2.9,68,0.00,,---,0.00,VWS V14.01,2013-03-16 07:12:00,
2013-03-16 03:13:00,42.3,32.5,28.26,NNE,28,2.9,2.9,68,0.00,,---,0.00,VWS V14.01,2013-03-16 07:13:00,
2013-03-16 03:17:00,42.1,32.3,28.26,NNE,21,2.9,2.9,68,0.00,,---,0.00,VWS V14.01,2013-03-16 07:17:00,
2013-03-16 03:18:00,42.1,32.3,28.26,NNE,21,2.9,2.9,68,0.00,,---,0.00,VWS V14.01,2013-03-16 07:18:00,
2013-03-16 03:19:00,42.1,32.3,28.27,NNE,21,2.9,2.9,68,0.00,,---,0.00,VWS V14.01,2013-03-16 07:19:00,
2013-03-16 03:23:00,41.9,32.1,28.26,NNE,16,2.9,2.9,68,0.00,,---,0.00,VWS V14.01,2013-03-16 07:23:00,
2013-03-16 03:24:00,41.9,32.1,28.26,NNE,16,2.0,2.9,68,0.00,,---,0.00,VWS V14.01,2013-03-16 07:24:00,
2013-03-16 03:28:00,41.7,31.9,28.26,NNE,32,0.9,2.9,68,0.00,,---,0.00,VWS V14.01,2013-03-16 07:28:00,
2013-03-16 03:29:00,41.7,31.9,28.26,NNE,32,0.9,2.9,68,0.00,,---,0.00,VWS V14.01,2013-03-16 07:29:00,
2013-03-16 03:33:00,41.7,31.9,28.26,NE,46,0.9,0.9,68,0.00,,---,0.00,VWS V14.01,2013-03-16 07:33:00,
2013-03-16 03:34:00,41.7,32.3,28.26,NE,46,0.9,0.9,69,0.00,,---,0.00,VWS V14.01,2013-03-16 07:34:00,
2013-03-16 03:38:00,41.5,32.1,28.26,NNE,30,0.9,0.9,69,0.00,,---,0.00,VWS V14.01,2013-03-16 07:38:00,
2013-03-16 03:39:00,41.5,32.1,28.26,NNE,17,2.0,2.0,69,0.00,,---,0.00,VWS V14.01,2013-03-16 07:39:00,
2013-03-16 03:43:00,41.5,32.1,28.26,NNE,17,2.0,2.0,69,0.00,,---,0.00,VWS V14.01,2013-03-16 07:43:00,
2013-03-16 03:44:00,41.5,32.1,28.26,WNW,293,2.0,2.0,69,0.00,,---,0.00,VWS V14.01,2013-03-16 07:44:00,
2013-03-16 03:48:00,41.5,32.1,28.26,NE,36,2.0,2.0,69,0.00,,---,0.00,VWS V14.01,2013-03-16 07:48:00,
2013-03-16 03:49:00,41.4,32.0,28.26,NNE,16,2.0,2.0,69,0.00,,---,0.00,VWS V14.01,2013-03-16 07:49:00,
2013-03-16 03:53:00,41.4,32.0,28.26,North,351,0.9,2.0,69,0.00,,---,0.00,VWS V14.01,2013-03-16 07:53:00,
2013-03-16 03:54:00,41.4,32.0,28.26,North,0,0.9,2.0,69,0.00,,---,0.00,VWS V14.01,2013-03-16 07:54:00,
2013-03-16 03:58:00,41.4,32.4,28.26,NNW,348,0.9,2.0,70,0.00,,---,0.00,VWS V14.01,2013-03-16 07:58:00,
2013-03-16 03:59:00,41.4,32.4,28.26,North,355,0.9,2.0,70,0.00,,---,0.00,VWS V14.01,2013-03-16 07:59:00,
2013-03-16 04:03:00,41.2,32.2,28.26,North,0,0.9,0.9,70,0.00,,---,0.00,VWS V14.01,2013-03-16 08:03:00,
2013-03-16 04:04:00,41.2,32.2,28.26,North,0,0.0,0.9,70,0.00,,---,0.00,VWS V14.01,2013-03-16 08:04:00,
2013-03-16 04:08:00,41.2,32.2,28.26,North,0,0.0,0.9,70,0.00,,---,0.00,VWS V14.01,2013-03-16 08:08:00,
2013-03-16 04:09:00,41.2,32.2,28.26,North,0,0.0,0.9,70,0.00,,---,0.00,VWS V14.01,2013-03-16 08:09:00,
2013-03-16 04:13:00,41.2,32.5,28.26,North,0,0.0,0.9,71,0.00,,---,0.00,VWS V14.01,2013-03-16 08:13:00,
2013-03-16 04:14:00,41.2,32.5,28.26,North,0,0.0,0.9,71,0.00,,---,0.00,VWS V14.01,2013-03-16 08:14:00,
2013-03-16 04:15:00,41.2,32.5,28.26,North,355,0.0,0.9,71,0.00,,---,0.00,VWS V14.01,2013-03-16 08:15:00,
2013-03-16 04:18:00,40.8,31.8,28.26,North,0,0.9,0.9,70,0.00,,---,0.00,VWS V14.01,2013-03-16 08:18:00,
2013-03-16 04:19:00,40.8,31.8,28.26,North,0,0.9,0.9,70,0.00,,---,0.00,VWS V14.01,2013-03-16 08:19:00,
2013-03-16 04:20:00,40.8,31.8,28.26,North,0,0.9,0.9,70,0.00,,---,0.00,VWS V14.01,2013-03-16 08:20:00,
2013-03-16 04:23:00,40.8,31.8,28.26,North,0,0.9,0.9,70,0.00,,---,0.00,VWS V14.01,2013-03-16 08:23:00,
2013-03-16 04:24:00,40.8,31.8,28.26,North,0,0.9,0.9,70,0.00,,---,0.00,VWS V14.01,2013-03-16 08:24:00,
2013-03-16 04:25:00,40.8,31.8,28.25,North,0,0.9,0.9,70,0.00,,---,0.00,VWS V14.01,2013-03-16 08:25:00,
2013-03-16 04:29:00,40.6,31.2,28.25,NNE,19,0.0,0.9,69,0.00,,---,0.00,VWS V14.01,2013-03-16 08:29:00,
2013-03-16 04:30:00,40.6,30.9,28.26,NNE,20,0.9,0.9,68,0.00,,---,0.00,VWS V14.01,2013-03-16 08:30:00,
2013-03-16 04:34:00,40.6,30.9,28.26,NE,48,0.9,0.9,68,0.00,,---,0.00,VWS V14.01,2013-03-16 08:34:00,
2013-03-16 04:35:00,40.6,30.9,28.26,NNW,335,0.9,0.9,68,0.00,,---,0.00,VWS V14.01,2013-03-16 08:35:00,
2013-03-16 04:39:00,40.5,30.8,28.26,NNW,335,0.9,0.9,68,0.00,,---,0.00,VWS V14.01,2013-03-16 08:39:00,
2013-03-16 04:40:00,40.5,30.8,28.26,North,350,0.9,0.9,68,0.00,,---,0.00,VWS V14.01,2013-03-16 08:40:00,
2013-03-16 04:44:00,40.5,30.8,28.26,NNE,19,0.9,0.9,68,0.00,,---,0.00,VWS V14.01,2013-03-16 08:44:00,
2013-03-16 04:46:00,40.5,30.8,28.26,NNE,19,0.9,0.9,68,0.00,,---,0.00,VWS V14.01,2013-03-16 08:46:00,
2013-03-16 04:49:00,40.5,31.1,28.26,NNE,19,0.9,0.9,69,0.00,,---,0.00,VWS V14.01,2013-03-16 08:49:00,
2013-03-16 04:51:00,40.5,31.1,28.26,NNE,19,0.9,0.9,69,0.00,,---,0.00,VWS V14.01,2013-03-16 08:51:00,
2013-03-16 04:54:00,40.5,31.1,28.26,NNE,19,0.0,0.9,69,0.00,,---,0.00,VWS V14.01,2013-03-16 08:54:00,
2013-03-16 04:56:00,40.3,31.0,28.26,NNE,19,0.0,0.9,69,0.00,,---,0.00,VWS V14.01,2013-03-16 08:56:00,
2013-03-16 04:59:00,40.3,31.0,28.26,NNE,19,0.0,0.9,69,0.00,,---,0.00,VWS V14.01,2013-03-16 08:59:00,
2013-03-16 05:01:00,40.3,31.0,28.26,NNE,19,0.0,0.0,69,0.00,,---,0.00,VWS V14.01,2013-03-16 09:01:00,
2013-03-16 05:04:00,40.3,31.0,28.26,NNW,338,0.0,0.0,69,0.00,,---,0.00,VWS V14.01,2013-03-16 09:04:00,
2013-03-16 05:06:00,40.1,30.8,28.26,NNW,338,0.0,0.0,69,0.00,,---,0.00,VWS V14.01,2013-03-16 09:06:00,
2013-03-16 05:09:00,39.9,30.6,28.26,NNW,338,0.0,0.0,69,0.00,,---,0.00,VWS V14.01,2013-03-16 09:09:00,
2013-03-16 05:12:00,39.9,30.6,28.26,NNW,338,0.0,0.0,69,0.00,,---,0.00,VWS V14.01,2013-03-16 09:12:00,
2013-03-16 05:14:00,39.9,30.6,28.26,NNW,338,0.0,0.0,69,0.00,,---,0.00,VWS V14.01,2013-03-16 09:14:00,
2013-03-16 05:17:00,39.9,30.6,28.26,NNW,338,0.0,0.0,69,0.00,,---,0.00,VWS V14.01,2013-03-16 09:17:00,
2013-03-16 05:19:00,39.9,30.6,28.26,NNW,338,0.0,0.0,69,0.00,,---,0.00,VWS V14.01,2013-03-16 09:19:00,
2013-03-16 05:22:00,39.7,30.4,28.26,NNW,338,0.0,0.0,69,0.00,,---,0.00,VWS V14.01,2013-03-16 09:22:00,
2013-03-16 05:24:00,39.7,30.7,28.25,NNW,338,0.0,0.0,70,0.00,,---,0.00,VWS V14.01,2013-03-16 09:24:00,
2013-03-16 05:27:00,39.7,30.7,28.25,NNW,338,0.0,0.0,70,0.00,,---,0.00,VWS V14.01,2013-03-16 09:27:00,
2013-03-16 05:29:00,39.7,30.7,28.25,NNW,338,0.0,0.0,70,0.00,,---,0.00,VWS V14.01,2013-03-16 09:29:00,
2013-03-16 05:30:00,39.7,30.7,28.25,NNW,338,0.0,0.0,70,0.00,,---,0.00,VWS V14.01,2013-03-16 09:30:00,
2013-03-16 05:32:00,39.6,30.6,28.25,NNW,338,0.0,0.0,70,0.00,,---,0.00,VWS V14.01,2013-03-16 09:32:00,
2013-03-16 05:34:00,39.6,30.6,28.25,NNW,338,0.0,0.0,70,0.00,,---,0.00,VWS V14.01,2013-03-16 09:34:00,
2013-03-16 05:35:00,39.6,30.6,28.25,NNW,338,0.0,0.0,70,0.00,,---,0.00,VWS V14.01,2013-03-16 09:35:00,
2013-03-16 05:37:00,39.6,30.6,28.25,NNW,338,0.0,0.0,70,0.00,,---,0.00,VWS V14.01,2013-03-16 09:37:00,
2013-03-16 05:40:00,39.6,30.6,28.25,NNW,338,0.0,0.0,70,0.00,,---,0.00,VWS V14.01,2013-03-16 09:40:00,
2013-03-16 05:42:00,39.6,30.6,28.25,NNW,338,0.0,0.0,70,0.00,,---,0.00,VWS V14.01,2013-03-16 09:42:00,
2013-03-16 05:45:00,39.4,30.8,28.25,NNW,338,0.0,0.0,71,0.00,,---,0.00,VWS V14.01,2013-03-16 09:45:00,
2013-03-16 05:47:00,39.4,30.8,28.25,NNW,338,0.0,0.0,71,0.00,,---,0.00,VWS V14.01,2013-03-16 09:47:00,
2013-03-16 05:50:00,39.4,30.8,28.26,NNW,338,0.0,0.0,71,0.00,,---,0.00,VWS V14.01,2013-03-16 09:50:00,
2013-03-16 05:52:00,39.4,30.8,28.26,NNW,338,0.0,0.0,71,0.00,,---,0.00,VWS V14.01,2013-03-16 09:52:00,
2013-03-16 05:55:00,39.2,30.2,28.25,NNW,338,0.0,0.0,70,0.00,,---,0.00,VWS V14.01,2013-03-16 09:55:00,
2013-03-16 05:57:00,39.0,30.1,28.26,NNW,338,0.0,0.0,70,0.00,,---,0.00,VWS V14.01,2013-03-16 09:57:00,
2013-03-16 06:00:00,39.0,30.1,28.26,NNW,338,0.0,0.0,70,0.00,,---,0.00,VWS V14.01,2013-03-16 10:00:00,
2013-03-16 06:02:00,39.0,30.1,28.26,NNW,338,0.0,0.0,70,0.00,,---,0.00,VWS V14.01,2013-03-16 10:02:00,
2013-03-16 06:05:00,39.0,30.1,28.26,NNW,338,0.0,0.0,70,0.00,,---,0.00,VWS V14.01,2013-03-16 10:05:00,
2013-03-16 06:07:00,38.8,29.9,28.26,NNW,338,0.0,0.0,70,0.00,,---,0.00,VWS V14.01,2013-03-16 10:07:00,
2013-03-16 06:10:00,38.8,29.9,28.26,NNW,338,0.0,0.0,70,0.00,,---,0.00,VWS V14.01,2013-03-16 10:10:00,
2013-03-16 06:12:00,38.8,29.9,28.26,NNW,338,0.0,0.0,70,0.00,,---,0.00,VWS V14.01,2013-03-16 10:12:00,
2013-03-16 06:15:00,38.8,29.5,28.26,NNW,338,0.0,0.0,69,0.00,,---,0.00,VWS V14.01,2013-03-16 10:15:00,
2013-03-16 06:16:00,38.7,29.4,28.26,NNW,338,0.0,0.0,69,0.00,,---,0.00,VWS V14.01,2013-03-16 10:16:00,
2013-03-16 06:17:00,38.7,29.4,28.26,NNW,338,0.0,0.0,69,0.00,,---,0.00,VWS V14.01,2013-03-16 10:17:00,
2013-03-16 06:20:00,38.7,29.4,28.25,NNW,338,0.0,0.0,69,0.00,,---,0.00,VWS V14.01,2013-03-16 10:20:00,
2013-03-16 06:21:00,38.7,29.4,28.25,NNW,338,0.0,0.0,69,0.00,,---,0.00,VWS V14.01,2013-03-16 10:21:00,
2013-03-16 06:22:00,38.7,29.4,28.25,NNW,338,0.0,0.0,69,0.00,,---,0.00,VWS V14.01,2013-03-16 10:22:00,
2013-03-16 06:25:00,38.7,29.4,28.26,NNW,338,0.0,0.0,69,0.00,,---,0.00,VWS V14.01,2013-03-16 10:25:00,
2013-03-16 06:26:00,38.7,29.4,28.26,NNW,338,0.0,0.0,69,0.00,,---,0.00,VWS V14.01,2013-03-16 10:26:00,
2013-03-16 06:28:00,38.7,29.4,28.26,NNW,338,0.0,0.0,69,0.00,,---,0.00,VWS V14.01,2013-03-16 10:28:00,
2013-03-16 06:30:00,38.7,29.4,28.26,NNW,338,0.0,0.0,69,0.00,,---,0.00,VWS V14.01,2013-03-16 10:30:00,
2013-03-16 06:31:00,38.7,29.8,28.26,NNW,338,0.0,0.0,70,0.00,,---,0.00,VWS V14.01,2013-03-16 10:31:00,
2013-03-16 06:33:00,38.5,29.6,28.26,NNW,338,0.0,0.0,70,0.00,,---,0.00,VWS V14.01,2013-03-16 10:33:00,
2013-03-16 06:35:00,38.5,29.6,28.27,NNW,338,0.0,0.0,70,0.00,,---,0.00,VWS V14.01,2013-03-16 10:35:00,
2013-03-16 06:36:00,38.5,29.6,28.27,NNW,338,0.0,0.0,70,0.00,,---,0.00,VWS V14.01,2013-03-16 10:36:00,
2013-03-16 06:38:00,38.5,29.6,28.27,NNW,338,0.0,0.0,70,0.00,,---,0.00,VWS V14.01,2013-03-16 10:38:00,
2013-03-16 06:40:00,38.5,29.6,28.27,NNW,338,0.0,0.0,70,0.00,,---,0.00,VWS V14.01,2013-03-16 10:40:00,
2013-03-16 06:41:00,38.5,29.9,28.27,NNW,338,0.0,0.0,71,0.00,,---,0.00,VWS V14.01,2013-03-16 10:41:00,
2013-03-16 06:43:00,38.5,29.9,28.27,NNW,338,0.0,0.0,71,0.00,,---,0.00,VWS V14.01,2013-03-16 10:43:00,
2013-03-16 06:45:00,38.5,29.9,28.27,NNW,338,0.0,0.0,71,0.00,,---,0.00,VWS V14.01,2013-03-16 10:45:00,
2013-03-16 06:46:00,38.5,29.9,28.27,NNW,338,0.0,0.0,71,0.00,,---,0.00,VWS V14.01,2013-03-16 10:46:00,
2013-03-16 06:48:00,38.5,29.9,28.27,NNW,338,0.0,0.0,71,0.00,,---,0.00,VWS V14.01,2013-03-16 10:48:00,
2013-03-16 06:50:00,38.3,30.1,28.27,NNW,338,0.0,0.0,72,0.00,,---,0.00,VWS V14.01,2013-03-16 10:50:00,
2013-03-16 06:51:00,38.3,30.1,28.27,NNW,338,0.0,0.0,72,0.00,,---,0.00,VWS V14.01,2013-03-16 10:51:00,
2013-03-16 06:53:00,38.3,30.1,28.27,NNW,338,0.0,0.0,72,0.00,,---,0.00,VWS V14.01,2013-03-16 10:53:00,
2013-03-16 06:55:00,38.3,30.1,28.27,NNW,338,0.0,0.0,72,0.00,,---,0.00,VWS V14.01,2013-03-16 10:55:00,
2013-03-16 06:56:00,38.3,30.1,28.27,NNW,338,0.0,0.0,72,0.00,,---,0.00,VWS V14.01,2013-03-16 10:56:00,
2013-03-16 06:58:00,38.1,29.9,28.27,NNW,338,0.0,0.0,72,0.00,,---,0.00,VWS V14.01,2013-03-16 10:58:00,
2013-03-16 07:00:00,38.1,29.9,28.27,NNW,338,0.0,0.0,72,0.00,,---,0.00,VWS V14.01,2013-03-16 11:00:00,
2013-03-16 07:02:00,38.1,29.9,28.27,NNW,338,0.0,0.0,72,0.00,,---,0.00,VWS V14.01,2013-03-16 11:02:00,
2013-03-16 07:03:00,38.1,29.9,28.27,NNW,338,0.0,0.0,72,0.00,,---,0.00,VWS V14.01,2013-03-16 11:03:00,
2013-03-16 07:05:00,38.1,29.9,28.27,NNW,338,0.0,0.0,72,0.00,,---,0.00,VWS V14.01,2013-03-16 11:05:00,
2013-03-16 07:07:00,38.1,29.9,28.27,NNW,338,0.0,0.0,72,0.00,,---,0.00,VWS V14.01,2013-03-16 11:07:00,
2013-03-16 07:08:00,38.1,29.9,28.27,NNW,338,0.0,0.0,72,0.00,,---,0.00,VWS V14.01,2013-03-16 11:08:00,
2013-03-16 07:10:00,37.9,29.7,28.26,NNW,338,0.0,0.0,72,0.00,,---,0.00,VWS V14.01,2013-03-16 11:10:00,
2013-03-16 07:12:00,37.9,29.7,28.26,NNW,338,0.9,0.9,72,0.00,,---,0.00,VWS V14.01,2013-03-16 11:12:00,
2013-03-16 07:14:00,37.9,29.4,28.27,NNW,338,0.9,0.9,71,0.00,,---,0.00,VWS V14.01,2013-03-16 11:14:00,
2013-03-16 07:15:00,37.9,29.4,28.27,NNW,338,0.9,0.9,71,0.00,,---,0.00,VWS V14.01,2013-03-16 11:15:00,
2013-03-16 07:16:00,37.9,29.4,28.27,NNW,338,0.9,0.9,71,0.00,,---,0.00,VWS V14.01,2013-03-16 11:16:00,
2013-03-16 07:17:00,37.9,29.0,28.27,NNW,338,0.9,0.9,70,0.00,,---,0.00,VWS V14.01,2013-03-16 11:17:00,
2013-03-16 07:19:00,37.9,28.6,28.27,NNW,338,0.0,0.9,69,0.00,,---,0.00,VWS V14.01,2013-03-16 11:19:00,
2013-03-16 07:20:00,37.8,28.2,28.27,NNW,338,0.0,0.9,68,0.00,,---,0.00,VWS V14.01,2013-03-16 11:20:00,
2013-03-16 07:21:00,37.8,28.2,28.27,NNW,338,0.0,0.9,68,0.00,,---,0.00,VWS V14.01,2013-03-16 11:21:00,
2013-03-16 07:22:00,37.8,28.2,28.27,NNW,338,0.0,0.9,68,0.00,,---,0.00,VWS V14.01,2013-03-16 11:22:00,
2013-03-16 07:24:00,37.8,27.8,28.27,NNW,338,0.0,0.9,67,0.00,,---,0.00,VWS V14.01,2013-03-16 11:24:00,
2013-03-16 07:25:00,37.8,27.8,28.27,NNW,338,0.0,0.9,67,0.00,,---,0.00,VWS V14.01,2013-03-16 11:25:00,
2013-03-16 07:26:00,37.8,27.8,28.27,NNW,338,0.0,0.9,67,0.00,,---,0.00,VWS V14.01,2013-03-16 11:26:00,
2013-03-16 07:27:00,37.8,27.8,28.27,NNW,338,0.0,0.9,67,0.00,,---,0.00,VWS V14.01,2013-03-16 11:27:00,
2013-03-16 07:29:00,37.8,27.5,28.27,NNW,338,0.0,0.9,66,0.00,,---,0.00,VWS V14.01,2013-03-16 11:29:00,
2013-03-16 07:31:00,37.8,27.5,28.27,NNW,338,0.0,0.0,66,0.00,,---,0.00,VWS V14.01,2013-03-16 11:31:00,
2013-03-16 07:32:00,37.8,27.5,28.27,NNW,338,0.0,0.0,66,0.00,,---,0.00,VWS V14.01,2013-03-16 11:32:00,
2013-03-16 07:34:00,37.8,27.5,28.27,NNW,338,0.0,0.0,66,0.00,,---,0.00,VWS V14.01,2013-03-16 11:34:00,
2013-03-16 07:36:00,37.8,27.5,28.27,NNW,338,0.0,0.0,66,0.00,,---,0.00,VWS V14.01,2013-03-16 11:36:00,
2013-03-16 07:37:00,37.8,27.5,28.27,NNW,338,0.0,0.0,66,0.00,,---,0.00,VWS V14.01,2013-03-16 11:37:00,
2013-03-16 07:39:00,37.8,27.5,28.27,NNW,338,0.0,0.0,66,0.00,,---,0.00,VWS V14.01,2013-03-16 11:39:00,
2013-03-16 07:41:00,37.8,27.5,28.27,NNW,338,0.0,0.0,66,0.00,,---,0.00,VWS V14.01,2013-03-16 11:41:00,
2013-03-16 07:42:00,37.8,27.8,28.27,NNW,338,0.0,0.0,67,0.00,,---,0.00,VWS V14.01,2013-03-16 11:42:00,
2013-03-16 07:44:00,37.8,27.5,28.27,NNW,338,0.0,0.0,66,0.00,,---,0.00,VWS V14.01,2013-03-16 11:44:00,
2013-03-16 07:46:00,37.8,27.5,28.27,NNW,338,0.0,0.0,66,0.00,,---,0.00,VWS V14.01,2013-03-16 11:46:00,
2013-03-16 07:47:00,37.8,27.5,28.27,NNW,338,0.0,0.0,66,0.00,,---,0.00,VWS V14.01,2013-03-16 11:47:00,
2013-03-16 07:48:00,37.8,27.5,28.27,NNW,338,0.0,0.0,66,0.00,,---,0.00,VWS V14.01,2013-03-16 11:48:00,
2013-03-16 07:49:00,37.8,27.5,28.27,NNW,338,0.0,0.0,66,0.00,,---,0.00,VWS V14.01,2013-03-16 11:49:00,
2013-03-16 07:51:00,37.8,27.5,28.26,NNW,338,0.0,0.0,66,0.00,,---,0.00,VWS V14.01,2013-03-16 11:51:00,
2013-03-16 07:52:00,37.8,27.5,28.27,NNW,338,0.0,0.0,66,0.00,,---,0.00,VWS V14.01,2013-03-16 11:52:00,
2013-03-16 07:53:00,37.8,27.5,28.26,NNW,338,0.0,0.0,66,0.00,,---,0.00,VWS V14.01,2013-03-16 11:53:00,
2013-03-16 07:54:00,37.8,27.5,28.26,NNW,338,0.0,0.0,66,0.00,,---,0.00,VWS V14.01,2013-03-16 11:54:00,
2013-03-16 07:57:00,37.8,27.8,28.26,NNW,338,0.0,0.0,67,0.00,,---,0.00,VWS V14.01,2013-03-16 11:57:00,
2013-03-16 07:58:00,37.6,27.6,28.26,NNW,338,0.0,0.0,67,0.00,,---,0.00,VWS V14.01,2013-03-16 11:58:00,
2013-03-16 07:59:00,37.6,27.6,28.26,NNW,338,0.0,0.0,67,0.00,,---,0.00,VWS V14.01,2013-03-16 11:59:00,
2013-03-16 08:02:00,37.6,28.0,28.26,NNW,338,0.0,0.0,68,0.00,,---,0.00,VWS V14.01,2013-03-16 12:02:00,
2013-03-16 08:03:00,37.6,28.0,28.26,NNW,338,0.0,0.0,68,0.00,,---,0.00,VWS V14.01,2013-03-16 12:03:00,
2013-03-16 08:04:00,37.6,28.0,28.26,NNW,338,0.0,0.0,68,0.00,,---,0.00,VWS V14.01,2013-03-16 12:04:00,
2013-03-16 08:07:00,37.8,28.2,28.26,NNW,338,0.0,0.0,68,0.00,,---,0.00,VWS V14.01,2013-03-16 12:07:00,
2013-03-16 08:08:00,37.8,28.2,28.27,NNW,338,0.0,0.0,68,0.00,,---,0.00,VWS V14.01,2013-03-16 12:08:00,
2013-03-16 08:10:00,37.8,28.2,28.27,NNW,338,0.0,0.0,68,0.00,,---,0.00,VWS V14.01,2013-03-16 12:10:00,
2013-03-16 08:12:00,37.8,28.2,28.27,NNW,338,0.0,0.0,68,0.00,,---,0.00,VWS V14.01,2013-03-16 12:12:00,
2013-03-16 08:13:00,37.8,28.2,28.27,NNW,338,0.0,0.0,68,0.00,,---,0.00,VWS V14.01,2013-03-16 12:13:00,
2013-03-16 08:16:00,37.8,28.2,28.27,NNW,338,0.0,0.0,68,0.00,,---,0.00,VWS V14.01,2013-03-16 12:16:00,
2013-03-16 08:17:00,37.8,28.2,28.27,ENE,57,0.0,0.0,68,0.00,,---,0.00,VWS V14.01,2013-03-16 12:17:00,
2013-03-16 08:18:00,37.8,28.2,28.27,ENE,57,0.0,0.0,68,0.00,,---,0.00,VWS V14.01,2013-03-16 12:18:00,
2013-03-16 08:21:00,37.8,27.8,28.27,ENE,57,0.0,0.0,67,0.00,,---,0.00,VWS V14.01,2013-03-16 12:21:00,
2013-03-16 08:22:00,37.8,27.8,28.27,ENE,57,0.0,0.0,67,0.00,,---,0.00,VWS V14.01,2013-03-16 12:22:00,
2013-03-16 08:23:00,37.8,27.8,28.27,ENE,57,0.0,0.0,67,0.00,,---,0.00,VWS V14.01,2013-03-16 12:23:00,
2013-03-16 08:26:00,37.8,27.8,28.27,ENE,57,0.9,0.9,67,0.00,,---,0.00,VWS V14.01,2013-03-16 12:26:00,
2013-03-16 08:28:00,37.8,28.2,28.26,ENE,57,0.9,0.9,68,0.00,,---,0.00,VWS V14.01,2013-03-16 12:28:00,
2013-03-16 08:31:00,37.8,28.2,28.27,ENE,57,0.9,0.9,68,0.00,,---,0.00,VWS V14.01,2013-03-16 12:31:00,
2013-03-16 08:33:00,37.8,28.2,28.27,ENE,57,0.0,0.9,68,0.00,,---,0.00,VWS V14.01,2013-03-16 12:33:00,
2013-03-16 08:36:00,37.8,28.6,28.27,ENE,57,0.0,0.9,69,0.00,,---,0.00,VWS V14.01,2013-03-16 12:36:00,
2013-03-16 08:38:00,37.8,28.6,28.27,ENE,57,0.0,0.9,69,0.00,,---,0.00,VWS V14.01,2013-03-16 12:38:00,
2013-03-16 08:42:00,37.8,28.2,28.28,ENE,57,0.0,0.9,68,0.00,,---,0.00,VWS V14.01,2013-03-16 12:42:00,
2013-03-16 08:43:00,37.8,28.2,28.28,ENE,57,0.0,0.9,68,0.00,,---,0.00,VWS V14.01,2013-03-16 12:43:00,
2013-03-16 08:47:00,37.8,28.2,28.28,ENE,57,0.0,0.9,68,0.00,,---,0.00,VWS V14.01,2013-03-16 12:47:00,
2013-03-16 08:48:00,37.8,28.2,28.28,ENE,57,0.0,0.9,68,0.00,,---,0.00,VWS V14.01,2013-03-16 12:48:00,
2013-03-16 08:52:00,37.8,28.2,28.26,ENE,57,0.0,0.9,68,0.00,,---,0.00,VWS V14.01,2013-03-16 12:52:00,
2013-03-16 08:53:00,37.8,28.2,28.26,ENE,57,0.0,0.9,68,0.00,,---,0.00,VWS V14.01,2013-03-16 12:53:00,
2013-03-16 08:57:00,37.8,28.2,28.26,ENE,57,0.0,0.9,68,0.00,,---,0.00,VWS V14.01,2013-03-16 12:57:00,
2013-03-16 08:58:00,37.8,28.2,28.26,ENE,57,0.0,0.9,68,0.00,,---,0.00,VWS V14.01,2013-03-16 12:58:00,
2013-03-16 09:02:00,37.8,28.2,28.27,ENE,57,0.0,0.0,68,0.00,,---,0.00,VWS V14.01,2013-03-16 13:02:00,
2013-03-16 09:03:00,37.8,28.2,28.27,ENE,57,0.0,0.0,68,0.00,,---,0.00,VWS V14.01,2013-03-16 13:03:00,
2013-03-16 09:07:00,37.8,28.2,28.27,ENE,57,0.0,0.0,68,0.00,,---,0.00,VWS V14.01,2013-03-16 13:07:00,
2013-03-16 09:08:00,37.8,28.2,28.27,ENE,57,0.0,0.0,68,0.00,,---,0.00,VWS V14.01,2013-03-16 13:08:00,
2013-03-16 09:09:00,37.8,28.2,28.27,ENE,57,0.0,0.0,68,0.00,,---,0.00,VWS V14.01,2013-03-16 13:09:00,
2013-03-16 09:12:00,37.8,28.6,28.27,ENE,57,0.0,0.0,69,0.00,,---,0.00,VWS V14.01,2013-03-16 13:12:00,
2013-03-16 09:13:00,37.8,28.6,28.27,ENE,57,0.0,0.0,69,0.00,,---,0.00,VWS V14.01,2013-03-16 13:13:00,
2013-03-16 09:14:00,37.8,28.6,28.27,ENE,57,0.0,0.0,69,0.00,,---,0.00,VWS V14.01,2013-03-16 13:14:00,
2013-03-16 09:17:00,37.8,28.9,28.27,ENE,57,0.0,0.0,70,0.00,,---,0.00,VWS V14.01,2013-03-16 13:17:00,
2013-03-16 09:18:00,37.8,28.9,28.27,ENE,57,0.0,0.0,70,0.00,,---,0.00,VWS V14.01,2013-03-16 13:18:00,
2013-03-16 09:19:00,37.8,28.9,28.27,ENE,57,0.0,0.0,70,0.00,,---,0.00,VWS V14.01,2013-03-16 13:19:00,
2013-03-16 09:23:00,37.8,29.3,28.27,ENE,57,0.0,0.0,71,0.00,,---,0.00,VWS V14.01,2013-03-16 13:23:00,
2013-03-16 09:24:00,37.8,29.3,28.27,ENE,57,0.0,0.0,71,0.00,,---,0.00,VWS V14.01,2013-03-16 13:24:00,
2013-03-16 09:28:00,37.8,29.3,28.28,ENE,57,0.0,0.0,71,0.00,,---,0.00,VWS V14.01,2013-03-16 13:28:00,
2013-03-16 09:29:00,37.8,29.3,28.28,ENE,57,0.0,0.0,71,0.00,,---,0.00,VWS V14.01,2013-03-16 13:29:00,
2013-03-16 09:33:00,37.8,29.6,28.28,ENE,57,0.0,0.0,72,0.00,,---,0.00,VWS V14.01,2013-03-16 13:33:00,
2013-03-16 09:34:00,37.8,29.3,28.28,ENE,57,0.0,0.0,71,0.00,,---,0.00,VWS V14.01,2013-03-16 13:34:00,
2013-03-16 09:38:00,37.6,29.1,28.28,SW,215,0.0,0.0,71,0.00,,---,0.00,VWS V14.01,2013-03-16 13:38:00,
2013-03-16 09:39:00,37.6,29.1,28.28,SW,215,0.0,0.0,71,0.00,,---,0.00,VWS V14.01,2013-03-16 13:39:00,
2013-03-16 09:43:00,37.4,29.2,28.27,SW,215,0.0,0.0,72,0.00,,---,0.00,VWS V14.01,2013-03-16 13:43:00,
2013-03-16 09:44:00,37.4,29.2,28.28,SW,215,0.0,0.0,72,0.00,,---,0.00,VWS V14.01,2013-03-16 13:44:00,
2013-03-16 09:48:00,37.2,29.0,28.28,SW,215,0.0,0.0,72,0.00,,---,0.00,VWS V14.01,2013-03-16 13:48:00,
2013-03-16 09:49:00,37.2,29.0,28.28,SW,215,0.0,0.0,72,0.00,,---,0.00,VWS V14.01,2013-03-16 13:49:00,
2013-03-16 09:53:00,37.0,28.8,28.28,SW,215,0.0,0.0,72,0.00,,---,0.00,VWS V14.01,2013-03-16 13:53:00,
2013-03-16 09:54:00,37.0,28.8,28.28,SW,215,0.0,0.0,72,0.00,,---,0.00,VWS V14.01,2013-03-16 13:54:00,
2013-03-16 09:58:00,37.0,29.2,28.28,SW,215,0.0,0.0,73,0.00,,---,0.00,VWS V14.01,2013-03-16 13:58:00,
2013-03-16 09:59:00,37.0,29.2,28.28,SW,215,0.0,0.0,73,0.00,,---,0.00,VWS V14.01,2013-03-16 13:59:00,
2013-03-16 10:03:00,36.9,29.4,28.28,SW,215,0.0,0.0,74,0.00,,---,0.00,VWS V14.01,2013-03-16 14:03:00,
2013-03-16 10:04:00,36.9,29.4,28.28,SW,215,0.0,0.0,74,0.00,,---,0.00,VWS V14.01,2013-03-16 14:04:00,
2013-03-16 10:08:00,36.7,29.5,28.27,SW,215,0.0,0.0,75,0.00,,---,0.00,VWS V14.01,2013-03-16 14:08:00,
2013-03-16 10:09:00,36.7,29.5,28.27,SW,215,0.0,0.0,75,0.00,,---,0.00,VWS V14.01,2013-03-16 14:09:00,
2013-03-16 10:13:00,36.7,29.5,28.28,SW,215,0.0,0.0,75,0.00,,---,0.00,VWS V14.01,2013-03-16 14:13:00,
2013-03-16 10:15:00,36.5,29.7,28.28,SW,215,0.0,0.0,76,0.00,,---,0.00,VWS V14.01,2013-03-16 14:15:00,
2013-03-16 10:18:00,36.3,29.5,28.28,SW,217,0.0,0.0,76,0.00,,---,0.00,VWS V14.01,2013-03-16 14:18:00,
2013-03-16 10:19:00,36.3,29.5,28.28,SW,217,0.0,0.0,76,0.00,,---,0.00,VWS V14.01,2013-03-16 14:19:00,
2013-03-16 10:20:00,36.3,29.8,28.28,SW,217,0.0,0.0,77,0.00,,---,0.00,VWS V14.01,2013-03-16 14:20:00,
2013-03-16 10:23:00,36.3,29.8,28.28,SW,217,0.0,0.0,77,0.00,,---,0.00,VWS V14.01,2013-03-16 14:23:00,
2013-03-16 10:24:00,36.3,29.8,28.28,SW,217,0.0,0.0,77,0.00,,---,0.00,VWS V14.01,2013-03-16 14:24:00,
2013-03-16 10:25:00,36.3,30.1,28.28,SW,217,0.0,0.0,78,0.00,,---,0.00,VWS V14.01,2013-03-16 14:25:00,
2013-03-16 10:28:00,36.1,29.9,28.27,SW,217,0.0,0.0,78,0.00,,---,0.00,VWS V14.01,2013-03-16 14:28:00,
2013-03-16 10:29:00,36.1,29.9,28.27,SW,217,0.0,0.0,78,0.00,,---,0.00,VWS V14.01,2013-03-16 14:29:00,
2013-03-16 10:30:00,36.1,30.2,28.27,SW,217,0.0,0.0,79,0.00,,---,0.00,VWS V14.01,2013-03-16 14:30:00,
2013-03-16 10:34:00,36.0,30.1,28.27,SW,217,0.0,0.0,79,0.00,,---,0.00,VWS V14.01,2013-03-16 14:34:00,
2013-03-16 10:35:00,36.0,30.1,28.27,SW,217,0.0,0.0,79,0.00,,---,0.00,VWS V14.01,2013-03-16 14:35:00,
2013-03-16 10:39:00,35.8,30.2,28.27,SW,217,0.0,0.0,80,0.00,,---,0.00,VWS V14.01,2013-03-16 14:39:00,
2013-03-16 10:40:00,35.8,30.2,28.27,SW,217,0.0,0.0,80,0.00,,---,0.00,VWS V14.01,2013-03-16 14:40:00,
2013-03-16 10:44:00,35.4,30.2,28.27,SW,217,0.0,0.0,81,0.00,,---,0.00,VWS V14.01,2013-03-16 14:44:00,
2013-03-16 10:45:00,35.4,30.2,28.27,SW,217,0.0,0.0,81,0.00,,---,0.00,VWS V14.01,2013-03-16 14:45:00,
2013-03-16 10:49:00,35.2,30.0,28.28,SW,217,0.0,0.0,81,0.00,,---,0.00,VWS V14.01,2013-03-16 14:49:00,
2013-03-16 10:50:00,35.1,29.9,28.28,SW,217,0.0,0.0,81,0.00,,---,0.00,VWS V14.01,2013-03-16 14:50:00,
2013-03-16 10:51:00,35.1,29.9,28.28,SW,217,0.0,0.0,81,0.00,,---,0.00,VWS V14.01,2013-03-16 14:51:00,
2013-03-16 10:54:00,34.9,30.0,28.28,SW,217,0.0,0.0,82,0.00,,---,0.00,VWS V14.01,2013-03-16 14:54:00,
2013-03-16 10:55:00,34.9,30.0,28.28,SW,217,0.0,0.0,82,0.00,,---,0.00,VWS V14.01,2013-03-16 14:55:00,
2013-03-16 10:56:00,34.9,30.0,28.28,SW,217,0.0,0.0,82,0.00,,---,0.00,VWS V14.01,2013-03-16 14:56:00,
2013-03-16 10:59:00,34.7,30.1,28.28,SW,217,0.0,0.0,83,0.00,,---,0.00,VWS V14.01,2013-03-16 14:59:00,
2013-03-16 11:00:00,34.5,29.9,28.28,SW,217,0.0,0.0,83,0.00,,---,0.00,VWS V14.01,2013-03-16 15:00:00,
2013-03-16 11:01:00,34.5,29.9,28.28,SW,217,0.0,0.0,83,0.00,,---,0.00,VWS V14.01,2013-03-16 15:01:00,
2013-03-16 11:04:00,34.3,29.7,28.28,SW,217,0.0,0.0,83,0.00,,---,0.00,VWS V14.01,2013-03-16 15:04:00,
2013-03-16 11:05:00,34.3,30.0,28.28,SW,217,0.0,0.0,84,0.00,,---,0.00,VWS V14.01,2013-03-16 15:05:00,
2013-03-16 11:06:00,34.3,30.0,28.28,SW,217,0.0,0.0,84,0.00,,---,0.00,VWS V14.01,2013-03-16 15:06:00,
2013-03-16 11:09:00,34.3,30.0,28.27,SW,217,0.0,0.0,84,0.00,,---,0.00,VWS V14.01,2013-03-16 15:09:00,
2013-03-16 11:10:00,34.3,30.0,28.27,SW,217,0.0,0.0,84,0.00,,---,0.00,VWS V14.01,2013-03-16 15:10:00,
2013-03-16 11:11:00,34.3,30.0,28.27,SW,217,0.0,0.0,84,0.00,,---,0.00,VWS V14.01,2013-03-16 15:11:00,
2013-03-16 11:14:00,34.3,30.3,28.27,SW,217,0.0,0.0,85,0.00,,---,0.00,VWS V14.01,2013-03-16 15:14:00,
2013-03-16 11:15:00,34.2,30.2,28.27,SW,217,0.0,0.0,85,0.00,,---,0.00,VWS V14.01,2013-03-16 15:15:00,
2013-03-16 11:16:00,34.2,30.2,28.27,SW,217,0.0,0.0,85,0.00,,---,0.00,VWS V14.01,2013-03-16 15:16:00,
2013-03-16 11:19:00,34.2,30.2,28.27,SW,217,0.0,0.0,85,0.00,,---,0.00,VWS V14.01,2013-03-16 15:19:00,
2013-03-16 11:21:00,34.2,30.2,28.27,SW,217,0.0,0.0,85,0.00,,---,0.00,VWS V14.01,2013-03-16 15:21:00,
2013-03-16 11:24:00,34.0,30.0,28.27,SW,217,0.0,0.0,85,0.00,,---,0.00,VWS V14.01,2013-03-16 15:24:00,
2013-03-16 11:26:00,34.0,30.3,28.27,SW,217,0.0,0.0,86,0.00,,---,0.00,VWS V14.01,2013-03-16 15:26:00,
2013-03-16 11:29:00,34.0,30.3,28.27,SW,217,0.0,0.0,86,0.00,,---,0.00,VWS V14.01,2013-03-16 15:29:00,
2013-03-16 11:31:00,33.8,30.1,28.26,SW,217,0.0,0.0,86,0.00,,---,0.00,VWS V14.01,2013-03-16 15:31:00,
2013-03-16 11:32:00,33.8,30.1,28.26,SW,217,0.0,0.0,86,0.00,,---,0.00,VWS V14.01,2013-03-16 15:32:00,
2013-03-16 11:34:00,33.8,30.1,28.26,SW,217,0.0,0.0,86,0.00,,---,0.00,VWS V14.01,2013-03-16 15:34:00,
2013-03-16 11:36:00,33.8,30.1,28.25,SW,217,0.0,0.0,86,0.00,,---,0.00,VWS V14.01,2013-03-16 15:36:00,
2013-03-16 11:37:00,33.8,31.7,28.26,SW,217,0.0,0.0,92,0.00,,---,0.00,VWS V14.01,2013-03-16 15:37:00,
2013-03-16 11:39:00,33.8,30.1,28.25,SW,217,0.0,0.0,86,0.00,,---,0.00,VWS V14.01,2013-03-16 15:39:00,
2013-03-16 11:41:00,33.8,30.4,28.25,SW,217,0.0,0.0,87,0.00,,---,0.00,VWS V14.01,2013-03-16 15:41:00,
2013-03-16 11:42:00,33.8,30.4,28.25,SW,217,0.0,0.0,87,0.00,,---,0.00,VWS V14.01,2013-03-16 15:42:00,
2013-03-16 11:44:00,33.6,30.1,28.25,SW,217,0.0,0.0,87,0.00,,---,0.00,VWS V14.01,2013-03-16 15:44:00,
2013-03-16 11:45:00,33.6,30.1,28.25,SW,217,0.0,0.0,87,0.00,,---,0.00,VWS V14.01,2013-03-16 15:45:00,
2013-03-16 11:46:00,33.6,30.1,28.25,SW,217,0.0,0.0,87,0.00,,---,0.00,VWS V14.01,2013-03-16 15:46:00,
2013-03-16 11:47:00,33.6,30.1,28.25,SW,217,0.0,0.0,87,0.00,,---,0.00,VWS V14.01,2013-03-16 15:47:00,
2013-03-16 11:49:00,33.6,30.1,28.25,SW,217,0.0,0.0,87,0.00,,---,0.00,VWS V14.01,2013-03-16 15:49:00,
2013-03-16 11:50:00,33.6,30.1,28.25,SW,217,0.0,0.0,87,0.00,,---,0.00,VWS V14.01,2013-03-16 15:50:00,
2013-03-16 11:52:00,33.6,30.1,28.25,SW,217,0.0,0.0,87,0.00,,---,0.00,VWS V14.01,2013-03-16 15:52:00,
2013-03-16 11:54:00,33.6,30.1,28.25,SW,217,0.0,0.0,87,0.00,,---,0.00,VWS V14.01,2013-03-16 15:54:00,
2013-03-16 11:55:00,33.6,30.1,28.25,SW,217,0.0,0.0,87,0.00,,---,0.00,VWS V14.01,2013-03-16 15:55:00,
2013-03-16 11:57:00,33.4,30.2,28.25,SW,217,0.0,0.0,88,0.00,,---,0.00,VWS V14.01,2013-03-16 15:57:00,
2013-03-16 11:59:00,33.4,30.2,28.25,SW,217,0.0,0.0,88,0.00,,---,0.00,VWS V14.01,2013-03-16 15:59:00,
2013-03-16 12:00:00,33.4,30.2,28.25,SW,217,0.0,0.0,88,0.00,,---,0.00,VWS V14.01,2013-03-16 16:00:00,
2013-03-16 12:02:00,33.4,30.2,28.25,SW,217,0.0,0.0,88,0.00,,---,0.00,VWS V14.01,2013-03-16 16:02:00,
2013-03-16 12:04:00,33.4,30.2,28.25,SW,217,0.0,0.0,88,0.00,,---,0.00,VWS V14.01,2013-03-16 16:04:00,
2013-03-16 12:05:00,33.4,30.2,28.25,SW,217,0.0,0.0,88,0.00,,---,0.00,VWS V14.01,2013-03-16 16:05:00,
2013-03-16 12:07:00,33.4,30.2,28.25,SW,217,0.0,0.0,88,0.00,,---,0.00,VWS V14.01,2013-03-16 16:07:00,
2013-03-16 12:09:00,33.4,30.2,28.25,SW,217,0.0,0.0,88,0.00,,---,0.00,VWS V14.01,2013-03-16 16:09:00,
2013-03-16 12:10:00,33.4,30.2,28.25,SW,217,0.0,0.0,88,0.00,,---,0.00,VWS V14.01,2013-03-16 16:10:00,
2013-03-16 12:12:00,33.3,30.1,28.24,SW,217,0.9,0.9,88,0.00,,---,0.00,VWS V14.01,2013-03-16 16:12:00,
2013-03-16 12:13:00,33.3,30.0,29.03,SW,217,0.0,2.0,88,0.00,,,0.00,meteohub,2013-03-16 16:13:00,
2013-03-16 12:14:00,33.3,30.1,28.23,SW,217,0.0,0.9,88,0.00,,---,0.00,VWS V14.01,2013-03-16 16:14:00,
2013-03-16 12:15:00,33.3,30.1,28.23,SW,217,0.0,0.9,88,0.00,,---,0.00,VWS V14.01,2013-03-16 16:15:00,
2013-03-16 12:17:00,33.3,30.1,28.23,NE,44,0.0,0.9,88,0.00,,---,0.00,VWS V14.01,2013-03-16 16:17:00,
2013-03-16 12:20:00,33.3,30.1,28.24,NE,44,0.0,0.9,88,0.00,,---,0.00,VWS V14.01,2013-03-16 16:20:00,
2013-03-16 12:22:00,33.3,30.4,28.23,NE,44,0.0,0.9,89,0.00,,---,0.00,VWS V14.01,2013-03-16 16:22:00,
2013-03-16 12:26:00,33.3,30.4,28.23,NE,44,0.0,0.0,89,0.00,,---,0.00,VWS V14.01,2013-03-16 16:26:00,
2013-03-16 12:27:00,33.3,30.4,28.24,NE,44,0.0,0.0,89,0.00,,---,0.00,VWS V14.01,2013-03-16 16:27:00,
2013-03-16 12:31:00,33.3,30.4,28.24,NE,44,0.0,0.0,89,0.00,,---,0.00,VWS V14.01,2013-03-16 16:31:00,
2013-03-16 12:32:00,33.3,30.4,28.24,NE,44,0.9,0.9,89,0.00,,---,0.00,VWS V14.01,2013-03-16 16:32:00,
2013-03-16 12:33:00,33.3,30.4,28.24,NE,44,0.9,0.9,89,0.00,,---,0.00,VWS V14.01,2013-03-16 16:33:00,
2013-03-16 12:36:00,33.3,30.4,28.24,NE,44,0.9,0.9,89,0.00,,---,0.00,VWS V14.01,2013-03-16 16:36:00,
2013-03-16 12:37:00,33.3,30.4,28.23,ENE,75,0.9,0.9,89,0.00,,---,0.00,VWS V14.01,2013-03-16 16:37:00,
2013-03-16 12:38:00,33.3,30.4,28.23,ENE,75,0.9,0.9,89,0.00,,---,0.00,VWS V14.01,2013-03-16 16:38:00,
2013-03-16 12:41:00,33.1,30.2,28.24,ENE,75,0.9,0.9,89,0.00,,---,0.00,VWS V14.01,2013-03-16 16:41:00,
2013-03-16 12:42:00,33.1,30.2,28.24,ENE,75,0.9,0.9,89,0.00,,---,0.00,VWS V14.01,2013-03-16 16:42:00,
2013-03-16 12:43:00,33.1,30.2,28.23,ENE,75,0.0,0.9,89,0.00,,---,0.00,VWS V14.01,2013-03-16 16:43:00,
2013-03-16 12:46:00,33.1,30.2,28.22,ENE,75,0.0,0.9,89,0.00,,---,0.00,VWS V14.01,2013-03-16 16:46:00,
2013-03-16 12:47:00,33.1,30.2,28.22,ENE,75,0.0,0.9,89,0.00,,---,0.00,VWS V14.01,2013-03-16 16:47:00,
2013-03-16 12:48:00,33.1,30.2,28.22,ENE,75,0.0,0.9,89,0.00,,---,0.00,VWS V14.01,2013-03-16 16:48:00,
2013-03-16 12:52:00,33.3,30.4,28.22,ENE,75,0.0,0.9,89,0.00,,---,0.00,VWS V14.01,2013-03-16 16:52:00,
2013-03-16 12:53:00,33.3,30.4,28.22,ENE,75,0.0,0.9,89,0.00,,---,0.00,VWS V14.01,2013-03-16 16:53:00,
2013-03-16 12:57:00,33.3,30.4,28.22,ENE,75,0.0,0.9,89,0.00,,---,0.00,VWS V14.01,2013-03-16 16:57:00,
2013-03-16 12:58:00,33.3,30.4,28.22,ENE,75,0.9,0.9,89,0.00,,---,0.00,VWS V14.01,2013-03-16 16:58:00,
2013-03-16 13:02:00,33.3,30.4,28.22,ENE,75,0.9,0.9,89,0.00,,---,0.00,VWS V14.01,2013-03-16 17:02:00,
2013-03-16 13:03:00,33.3,30.4,28.23,ENE,75,0.9,0.9,89,0.00,,---,0.00,VWS V14.01,2013-03-16 17:03:00,
2013-03-16 13:07:00,33.3,30.4,28.22,ENE,75,0.0,0.9,89,0.00,,---,0.00,VWS V14.01,2013-03-16 17:07:00,
2013-03-16 13:08:00,33.3,30.4,28.22,ENE,75,0.0,0.9,89,0.00,,---,0.00,VWS V14.01,2013-03-16 17:08:00,
2013-03-16 13:12:00,33.3,30.4,28.22,ENE,75,0.0,0.0,89,0.00,,---,0.00,VWS V14.01,2013-03-16 17:12:00,
2013-03-16 13:13:00,33.3,30.4,28.22,ENE,75,0.0,0.0,89,0.00,,---,0.00,VWS V14.01,2013-03-16 17:13:00,
2013-03-16 13:14:00,33.3,30.4,28.22,ENE,75,0.0,0.0,89,0.00,,---,0.00,VWS V14.01,2013-03-16 17:14:00,
2013-03-16 13:18:00,33.3,30.4,28.22,ENE,75,0.9,0.9,89,0.00,,---,0.00,VWS V14.01,2013-03-16 17:18:00,
2013-03-16 13:19:00,33.3,30.4,28.22,ENE,75,0.9,0.9,89,0.00,,---,0.00,VWS V14.01,2013-03-16 17:19:00,
2013-03-16 13:23:00,33.3,30.4,28.22,ENE,75,0.9,0.9,89,0.00,,---,0.00,VWS V14.01,2013-03-16 17:23:00,
2013-03-16 13:25:00,33.3,30.4,28.22,ENE,75,0.9,0.9,89,0.00,,---,0.00,VWS V14.01,2013-03-16 17:25:00,
2013-03-16 13:28:00,33.3,30.4,28.22,ENE,75,0.9,0.9,89,0.00,,---,0.00,VWS V14.01,2013-03-16 17:28:00,
2013-03-16 13:30:00,33.3,30.4,28.22,ENE,75,0.9,0.9,89,0.00,,---,0.00,VWS V14.01,2013-03-16 17:30:00,
2013-03-16 13:33:00,33.3,30.4,28.22,ENE,75,0.9,0.9,89,0.00,,---,0.00,VWS V14.01,2013-03-16 17:33:00,
2013-03-16 13:35:00,33.3,30.7,28.22,ENE,75,0.9,0.9,90,0.00,,---,0.00,VWS V14.01,2013-03-16 17:35:00,
2013-03-16 13:38:00,33.3,30.7,28.21,ENE,61,0.9,0.9,90,0.00,,---,0.00,VWS V14.01,2013-03-16 17:38:00,
2013-03-16 13:40:00,33.3,30.7,28.21,ENE,61,0.9,0.9,90,0.00,,---,0.00,VWS V14.01,2013-03-16 17:40:00,
2013-03-16 13:43:00,33.3,30.7,28.21,ENE,61,0.9,0.9,90,0.00,,---,0.00,VWS V14.01,2013-03-16 17:43:00,
2013-03-16 13:45:00,33.3,30.7,28.22,ENE,61,0.0,0.9,90,0.00,,---,0.00,VWS V14.01,2013-03-16 17:45:00,
2013-03-16 13:48:00,33.3,30.7,28.22,ENE,61,0.0,0.9,90,0.00,,---,0.00,VWS V14.01,2013-03-16 17:48:00,
2013-03-16 13:50:00,33.3,30.7,28.22,ENE,61,0.9,0.9,90,0.00,,---,0.00,VWS V14.01,2013-03-16 17:50:00,
2013-03-16 13:53:00,33.3,30.7,28.22,ENE,61,0.9,0.9,90,0.00,,---,0.01,VWS V14.01,2013-03-16 17:53:00,
2013-03-16 13:55:00,33.3,30.7,28.22,ENE,61,0.9,0.9,90,0.00,,---,0.01,VWS V14.01,2013-03-16 17:55:00,
2013-03-16 13:58:00,33.3,30.7,28.22,ENE,61,0.9,0.9,90,0.00,,---,0.01,VWS V14.01,2013-03-16 17:58:00,
2013-03-16 14:00:00,33.3,30.7,28.22,ENE,61,0.9,0.9,90,0.00,,---,0.01,VWS V14.01,2013-03-16 18:00:00,
2013-03-16 14:03:00,33.3,30.7,28.22,ENE,61,0.9,0.9,90,0.00,,---,0.01,VWS V14.01,2013-03-16 18:03:00,
2013-03-16 14:05:00,33.3,30.7,28.22,ENE,61,0.9,0.9,90,0.00,,---,0.01,VWS V14.01,2013-03-16 18:05:00,
2013-03-16 14:08:00,33.3,30.7,28.22,NNE,17,0.9,0.9,90,0.00,,---,0.02,VWS V14.01,2013-03-16 18:08:00,
2013-03-16 14:10:00,33.1,30.5,28.22,ENE,71,0.9,0.9,90,0.00,,---,0.02,VWS V14.01,2013-03-16 18:10:00,
2013-03-16 14:13:00,33.1,30.2,28.22,ENE,71,0.9,0.9,89,0.00,,---,0.02,VWS V14.01,2013-03-16 18:13:00,
2013-03-16 14:15:00,33.1,30.2,28.22,ENE,71,0.9,0.9,89,0.00,,---,0.02,VWS V14.01,2013-03-16 18:15:00,
2013-03-16 14:18:00,33.1,30.2,28.23,ENE,71,0.9,0.9,89,0.00,,---,0.02,VWS V14.01,2013-03-16 18:18:00,
2013-03-16 14:19:00,33.1,30.2,28.23,ENE,71,0.9,0.9,89,0.00,,---,0.02,VWS V14.01,2013-03-16 18:19:00,
2013-03-16 14:20:00,33.1,30.2,28.23,ENE,71,0.9,0.9,89,0.00,,---,0.02,VWS V14.01,2013-03-16 18:20:00,
2013-03-16 14:23:00,32.9,30.0,28.23,ENE,71,0.9,0.9,89,0.00,,---,0.02,VWS V14.01,2013-03-16 18:23:00,
2013-03-16 14:24:00,32.7,29.8,28.22,ENE,71,0.9,0.9,89,0.00,,---,0.02,VWS V14.01,2013-03-16 18:24:00,
2013-03-16 14:25:00,32.7,29.8,28.22,ENE,71,0.9,0.9,89,0.00,,---,0.02,VWS V14.01,2013-03-16 18:25:00,
2013-03-16 14:28:00,32.5,29.9,28.22,ENE,71,0.9,0.9,90,0.00,,---,0.02,VWS V14.01,2013-03-16 18:28:00,
2013-03-16 14:29:00,32.5,29.9,28.22,ENE,71,0.9,0.9,90,0.00,,---,0.02,VWS V14.01,2013-03-16 18:29:00,
2013-03-16 14:30:00,32.5,29.9,28.22,ENE,71,0.9,0.9,90,0.00,,---,0.02,VWS V14.01,2013-03-16 18:30:00,
2013-03-16 14:33:00,32.4,29.5,28.21,ENE,71,0.9,0.9,89,0.00,,---,0.02,VWS V14.01,2013-03-16 18:33:00,
2013-03-16 14:34:00,32.4,29.5,28.21,ENE,71,0.9,0.9,89,0.00,,---,0.02,VWS V14.01,2013-03-16 18:34:00,
2013-03-16 14:35:00,32.4,29.8,28.21,ENE,71,0.9,0.9,90,0.00,,---,0.02,VWS V14.01,2013-03-16 18:35:00,
2013-03-16 14:39:00,32.4,29.8,28.19,ENE,71,0.9,0.9,90,0.00,,---,0.02,VWS V14.01,2013-03-16 18:39:00,
2013-03-16 14:40:00,32.4,29.8,28.19,ENE,71,0.0,0.9,90,0.00,,---,0.02,VWS V14.01,2013-03-16 18:40:00,
2013-03-16 14:44:00,32.2,29.6,28.19,ENE,71,0.0,0.9,90,0.00,,---,0.02,VWS V14.01,2013-03-16 18:44:00,
2013-03-16 14:45:00,32.4,29.8,28.19,ENE,71,0.0,0.9,90,0.00,,---,0.02,VWS V14.01,2013-03-16 18:45:00,
2013-03-16 14:49:00,32.2,29.6,28.19,ENE,71,0.0,0.9,90,0.00,,---,0.02,VWS V14.01,2013-03-16 18:49:00,
2013-03-16 14:50:00,32.2,29.6,28.19,ENE,71,0.0,0.9,90,0.00,,---,0.02,VWS V14.01,2013-03-16 18:50:00,
2013-03-16 14:54:00,32.4,29.8,28.18,ENE,71,0.0,0.9,90,0.00,,---,0.02,VWS V14.01,2013-03-16 18:54:00,
2013-03-16 14:55:00,32.2,29.6,28.18,ENE,71,0.0,0.9,90,0.00,,---,0.02,VWS V14.01,2013-03-16 18:55:00,
2013-03-16 14:59:00,32.2,29.6,28.18,ENE,71,0.0,0.9,90,0.00,,---,0.02,VWS V14.01,2013-03-16 18:59:00,
2013-03-16 15:00:00,32.2,29.6,28.18,ENE,71,0.0,0.0,90,0.00,,---,0.02,VWS V14.01,2013-03-16 19:00:00,
2013-03-16 15:04:00,32.2,29.6,28.19,ENE,71,0.0,0.0,90,0.00,,---,0.02,VWS V14.01,2013-03-16 19:04:00,
2013-03-16 15:05:00,32.2,29.6,28.19,ENE,71,0.9,0.9,90,0.00,,---,0.02,VWS V14.01,2013-03-16 19:05:00,
2013-03-16 15:09:00,32.2,29.6,28.19,ENE,71,0.9,0.9,90,0.00,,---,0.02,VWS V14.01,2013-03-16 19:09:00,
2013-03-16 15:10:00,32.2,29.6,28.20,ENE,71,0.9,0.9,90,0.00,,---,0.02,VWS V14.01,2013-03-16 19:10:00,
2013-03-16 15:14:00,32.0,29.4,28.20,North,0,0.9,0.9,90,0.00,,---,0.02,VWS V14.01,2013-03-16 19:14:00,
2013-03-16 15:15:00,32.0,29.7,28.20,North,0,0.9,0.9,91,0.00,,---,0.02,VWS V14.01,2013-03-16 19:15:00,
2013-03-16 15:19:00,32.0,29.7,28.21,North,0,0.9,0.9,91,0.00,,---,0.02,VWS V14.01,2013-03-16 19:19:00,
2013-03-16 15:20:00,32.0,29.7,28.20,North,0,0.9,0.9,91,0.00,,---,0.02,VWS V14.01,2013-03-16 19:20:00,
2013-03-16 15:24:00,32.0,29.7,28.20,NE,52,0.9,0.9,91,0.00,,---,0.02,VWS V14.01,2013-03-16 19:24:00,
2013-03-16 15:25:00,32.0,29.7,28.20,NE,52,0.9,0.9,91,0.00,,---,0.02,VWS V14.01,2013-03-16 19:25:00,
2013-03-16 15:29:00,32.0,29.7,28.20,NE,52,0.9,0.9,91,0.00,,---,0.02,VWS V14.01,2013-03-16 19:29:00,
2013-03-16 15:30:00,32.0,29.7,28.20,SE,141,0.9,0.9,91,0.00,,---,0.02,VWS V14.01,2013-03-16 19:30:00,
2013-03-16 15:34:00,32.0,29.7,28.19,SE,141,0.9,0.9,91,0.00,,---,0.02,VWS V14.01,2013-03-16 19:34:00,
2013-03-16 15:35:00,31.8,29.5,28.19,SE,141,0.9,0.9,91,0.00,,---,0.02,VWS V14.01,2013-03-16 19:35:00,
2013-03-16 15:39:00,31.8,29.5,28.19,SE,141,0.9,0.9,91,0.00,,---,0.02,VWS V14.01,2013-03-16 19:39:00,
2013-03-16 15:40:00,31.8,29.5,28.19,SE,141,0.9,0.9,91,0.00,,---,0.02,VWS V14.01,2013-03-16 19:40:00,
2013-03-16 15:44:00,31.8,29.5,28.20,ENE,75,0.9,0.9,91,0.00,,---,0.02,VWS V14.01,2013-03-16 19:44:00,
2013-03-16 15:45:00,31.8,29.5,28.20,ENE,75,0.9,0.9,91,0.00,,---,0.02,VWS V14.01,2013-03-16 19:45:00,
2013-03-16 15:46:00,31.8,29.5,28.20,ENE,75,0.9,0.9,91,0.00,,---,0.02,VWS V14.01,2013-03-16 19:46:00,
2013-03-16 15:49:00,31.8,29.5,28.20,ENE,75,0.9,0.9,91,0.00,,---,0.02,VWS V14.01,2013-03-16 19:49:00,
2013-03-16 15:50:00,31.8,29.5,28.20,ENE,75,0.9,0.9,91,0.00,,---,0.02,VWS V14.01,2013-03-16 19:50:00,
2013-03-16 15:51:00,31.8,29.5,28.20,ENE,75,0.9,0.9,91,0.00,,---,0.02,VWS V14.01,2013-03-16 19:51:00,
2013-03-16 15:54:00,31.8,29.5,28.20,ENE,75,0.0,0.9,91,0.00,,---,0.02,VWS V14.01,2013-03-16 19:54:00,
2013-03-16 15:55:00,31.8,29.5,28.20,ENE,75,0.0,0.9,91,0.00,,---,0.02,VWS V14.01,2013-03-16 19:55:00,
2013-03-16 15:56:00,31.8,29.5,28.20,ENE,75,0.0,0.9,91,0.00,,---,0.04,VWS V14.01,2013-03-16 19:56:00,
2013-03-16 15:59:00,32.0,29.7,28.20,ENE,75,0.0,0.9,91,0.00,,---,0.04,VWS V14.01,2013-03-16 19:59:00,
2013-03-16 16:00:00,32.0,29.7,28.20,ENE,75,0.0,0.9,91,0.00,,---,0.04,VWS V14.01,2013-03-16 20:00:00,
2013-03-16 16:02:00,31.8,29.5,28.20,ENE,75,0.0,0.0,91,0.00,,---,0.05,VWS V14.01,2013-03-16 20:02:00,
2013-03-16 16:04:00,32.0,29.7,28.21,ENE,75,0.0,0.0,91,0.00,,---,0.05,VWS V14.01,2013-03-16 20:04:00,
2013-03-16 16:05:00,32.0,29.7,28.21,ENE,75,0.0,0.0,91,0.00,,---,0.05,VWS V14.01,2013-03-16 20:05:00,
2013-03-16 16:07:00,32.0,29.9,28.21,ENE,75,0.0,0.0,92,0.00,,---,0.05,VWS V14.01,2013-03-16 20:07:00,
2013-03-16 16:10:00,32.0,29.9,28.20,ENE,75,0.0,0.0,92,0.00,,---,0.05,VWS V14.01,2013-03-16 20:10:00,
2013-03-16 16:12:00,32.0,29.9,28.20,ENE,75,0.0,0.0,92,0.00,,---,0.06,VWS V14.01,2013-03-16 20:12:00,
2013-03-16 16:15:00,32.0,29.9,28.20,ENE,75,0.0,0.0,92,0.00,,---,0.06,VWS V14.01,2013-03-16 20:15:00,
2013-03-16 16:17:00,32.0,29.9,28.20,ENE,75,0.0,0.0,92,0.00,,---,0.06,VWS V14.01,2013-03-16 20:17:00,
2013-03-16 16:19:00,32.2,30.1,28.20,ENE,75,0.0,0.0,92,0.00,,---,0.06,VWS V14.01,2013-03-16 20:19:00,
2013-03-16 16:20:00,32.2,30.1,28.20,ENE,75,0.0,0.0,92,0.00,,---,0.06,VWS V14.01,2013-03-16 20:20:00,
2013-03-16 16:21:00,32.2,30.1,28.19,ENE,75,0.0,0.0,92,0.00,,---,0.07,VWS V14.01,2013-03-16 20:21:00,
2013-03-16 16:22:00,32.2,30.1,28.19,ENE,75,0.0,0.0,92,0.00,,---,0.07,VWS V14.01,2013-03-16 20:22:00,
2013-03-16 16:25:00,32.2,30.1,28.20,ENE,75,0.0,0.0,92,0.00,,---,0.07,VWS V14.01,2013-03-16 20:25:00,
2013-03-16 16:26:00,32.2,30.1,28.20,ENE,75,0.0,0.0,92,0.00,,---,0.08,VWS V14.01,2013-03-16 20:26:00,
2013-03-16 16:28:00,32.2,30.1,28.20,ENE,75,0.0,0.0,92,0.00,,---,0.08,VWS V14.01,2013-03-16 20:28:00,
2013-03-16 16:30:00,32.2,30.1,28.20,ENE,75,0.0,0.0,92,0.00,,---,0.08,VWS V14.01,2013-03-16 20:30:00,
2013-03-16 16:31:00,32.2,30.1,28.19,ENE,75,0.9,0.9,92,0.00,,---,0.08,VWS V14.01,2013-03-16 20:31:00,
2013-03-16 16:33:00,32.2,30.1,28.19,ENE,75,0.9,0.9,92,0.00,,---,0.08,VWS V14.01,2013-03-16 20:33:00,
2013-03-16 16:35:00,32.2,30.1,28.19,ENE,75,0.9,0.9,92,0.00,,---,0.08,VWS V14.01,2013-03-16 20:35:00,
2013-03-16 16:36:00,32.2,30.1,28.20,ENE,75,0.0,0.9,92,0.00,,---,0.08,VWS V14.01,2013-03-16 20:36:00,
2013-03-16 16:38:00,32.2,30.1,28.20,ENE,75,0.0,0.9,92,0.00,,---,0.08,VWS V14.01,2013-03-16 20:38:00,
2013-03-16 16:40:00,32.4,30.3,28.20,ENE,75,0.0,0.9,92,0.00,,---,0.08,VWS V14.01,2013-03-16 20:40:00,
2013-03-16 16:41:00,32.2,30.1,28.20,ENE,75,0.0,0.9,92,0.00,,---,0.08,VWS V14.01,2013-03-16 20:41:00,
2013-03-16 16:43:00,32.2,30.1,28.20,ENE,75,0.9,0.9,92,0.00,,---,0.08,VWS V14.01,2013-03-16 20:43:00,
2013-03-16 16:45:00,32.2,30.1,28.20,ENE,75,0.9,0.9,92,0.00,,---,0.08,VWS V14.01,2013-03-16 20:45:00,
2013-03-16 16:47:00,32.2,30.1,28.20,ENE,75,0.9,0.9,92,0.00,,---,0.08,VWS V14.01,2013-03-16 20:47:00,
2013-03-16 16:48:00,32.2,30.1,28.20,ENE,75,0.9,0.9,92,0.00,,---,0.08,VWS V14.01,2013-03-16 20:48:00,
2013-03-16 16:50:00,32.2,30.1,28.20,ENE,75,0.9,0.9,92,0.00,,---,0.08,VWS V14.01,2013-03-16 20:50:00,
2013-03-16 16:52:00,32.4,30.3,28.20,ENE,75,0.0,0.9,92,0.00,,---,0.09,VWS V14.01,2013-03-16 20:52:00,
2013-03-16 16:53:00,32.2,30.1,28.20,ENE,75,0.0,0.9,92,0.00,,---,0.09,VWS V14.01,2013-03-16 20:53:00,
2013-03-16 16:55:00,32.2,30.1,28.20,ENE,75,0.0,0.9,92,0.00,,---,0.09,VWS V14.01,2013-03-16 20:55:00,
2013-03-16 16:57:00,32.2,30.1,28.20,ENE,75,0.0,0.9,92,0.00,,---,0.09,VWS V14.01,2013-03-16 20:57:00,
2013-03-16 16:58:00,32.2,30.1,28.20,ENE,75,0.0,0.9,92,0.00,,---,0.09,VWS V14.01,2013-03-16 20:58:00,
2013-03-16 17:00:00,32.2,30.1,28.20,ENE,75,0.0,0.0,92,0.00,,---,0.09,VWS V14.01,2013-03-16 21:00:00,
2013-03-16 17:02:00,32.2,30.1,28.20,ENE,75,0.0,0.0,92,0.00,,---,0.09,VWS V14.01,2013-03-16 21:02:00,
2013-03-16 17:03:00,32.2,30.1,28.20,ENE,75,0.0,0.0,92,0.00,,---,0.09,VWS V14.01,2013-03-16 21:03:00,
2013-03-16 17:05:00,32.2,30.1,28.20,ENE,75,0.0,0.0,92,0.00,,---,0.09,VWS V14.01,2013-03-16 21:05:00,
2013-03-16 17:07:00,32.2,30.1,28.20,ENE,75,0.0,0.0,92,0.00,,---,0.09,VWS V14.01,2013-03-16 21:07:00,
2013-03-16 17:09:00,32.2,30.1,28.20,ENE,75,0.0,0.0,92,0.00,,---,0.09,VWS V14.01,2013-03-16 21:09:00,
2013-03-16 17:10:00,32.2,30.1,28.20,ENE,75,0.0,0.0,92,0.00,,---,0.09,VWS V14.01,2013-03-16 21:10:00,
2013-03-16 17:12:00,32.2,30.1,28.20,ENE,75,0.0,0.0,92,0.00,,---,0.09,VWS V14.01,2013-03-16 21:12:00,
2013-03-16 17:14:00,32.2,30.1,28.20,ENE,75,0.0,0.0,92,0.00,,---,0.09,VWS V14.01,2013-03-16 21:14:00,
2013-03-16 17:15:00,32.2,30.1,28.20,ENE,75,0.0,0.0,92,0.00,,---,0.09,VWS V14.01,2013-03-16 21:15:00,
2013-03-16 17:17:00,32.2,30.2,29.00,ENE,75,0.0,2.0,92,0.03,,,0.09,meteohub,2013-03-16 21:17:00,
2013-03-16 17:18:00,32.2,30.1,28.21,ENE,75,0.0,0.0,92,0.00,,---,0.09,VWS V14.01,2013-03-16 21:18:00,
2013-03-16 17:19:00,32.2,30.1,28.20,ENE,75,0.0,0.0,92,0.00,,---,0.09,VWS V14.01,2013-03-16 21:19:00,
2013-03-16 17:20:00,32.2,30.1,28.20,ENE,75,0.0,0.0,92,0.00,,---,0.09,VWS V14.01,2013-03-16 21:20:00,
2013-03-16 17:23:00,32.2,30.1,28.19,ENE,75,0.0,0.0,92,0.00,,---,0.09,VWS V14.01,2013-03-16 21:23:00,
2013-03-16 17:24:00,32.2,30.1,28.19,ENE,75,0.0,0.0,92,0.00,,---,0.09,VWS V14.01,2013-03-16 21:24:00,
2013-03-16 17:25:00,32.2,30.1,28.19,ENE,75,0.0,0.0,92,0.00,,---,0.09,VWS V14.01,2013-03-16 21:25:00,
2013-03-16 17:28:00,32.2,30.1,28.19,ENE,75,0.0,0.0,92,0.00,,---,0.09,VWS V14.01,2013-03-16 21:28:00,
2013-03-16 17:29:00,32.2,30.1,28.20,ENE,75,0.9,0.9,92,0.00,,---,0.09,VWS V14.01,2013-03-16 21:29:00,
2013-03-16 17:30:00,32.2,30.1,28.20,ENE,75,0.0,0.0,92,0.00,,---,0.09,VWS V14.01,2013-03-16 21:30:00,
2013-03-16 17:33:00,32.2,30.4,28.20,ENE,75,0.9,0.9,93,0.00,,---,0.09,VWS V14.01,2013-03-16 21:33:00,
2013-03-16 17:34:00,32.2,30.4,28.20,ENE,75,0.9,0.9,93,0.00,,---,0.09,VWS V14.01,2013-03-16 21:34:00,
2013-03-16 17:35:00,32.2,30.4,28.20,ENE,75,0.9,0.9,93,0.00,,---,0.10,VWS V14.01,2013-03-16 21:35:00,
2013-03-16 17:38:00,32.2,30.4,28.20,ENE,75,0.9,0.9,93,0.00,,---,0.10,VWS V14.01,2013-03-16 21:38:00,
2013-03-16 17:39:00,32.2,30.4,28.20,ENE,75,0.9,0.9,93,0.00,,---,0.10,VWS V14.01,2013-03-16 21:39:00,
2013-03-16 17:40:00,32.2,30.4,28.20,ENE,75,0.9,0.9,93,0.00,,---,0.10,VWS V14.01,2013-03-16 21:40:00,
2013-03-16 17:44:00,32.2,30.4,28.20,ENE,75,0.9,0.9,93,0.00,,---,0.10,VWS V14.01,2013-03-16 21:44:00,
2013-03-16 17:45:00,32.2,30.4,28.20,ENE,75,0.9,0.9,93,0.00,,---,0.10,VWS V14.01,2013-03-16 21:45:00,
2013-03-16 17:46:00,32.2,30.4,28.20,ENE,75,0.9,0.9,93,0.00,,---,0.10,VWS V14.01,2013-03-16 21:46:00,
2013-03-16 17:49:00,32.2,30.4,28.20,ENE,75,0.9,0.9,93,0.00,,---,0.10,VWS V14.01,2013-03-16 21:49:00,
2013-03-16 17:50:00,32.0,30.2,28.20,ENE,75,0.9,0.9,93,0.00,,---,0.10,VWS V14.01,2013-03-16 21:50:00,
2013-03-16 17:51:00,32.0,30.2,28.20,ENE,75,0.9,0.9,93,0.00,,---,0.10,VWS V14.01,2013-03-16 21:51:00,
2013-03-16 17:54:00,32.0,30.2,28.20,ENE,75,0.0,0.9,93,0.00,,---,0.10,VWS V14.01,2013-03-16 21:54:00,
2013-03-16 17:56:00,32.0,30.2,28.21,ENE,75,0.0,0.9,93,0.00,,---,0.10,VWS V14.01,2013-03-16 21:56:00,
2013-03-16 17:59:00,32.0,30.2,28.21,ENE,75,0.0,0.9,93,0.00,,---,0.10,VWS V14.01,2013-03-16 21:59:00,
2013-03-16 18:01:00,32.0,30.2,28.20,ENE,75,0.0,0.0,93,0.00,,---,0.10,VWS V14.01,2013-03-16 22:01:00,
2013-03-16 18:04:00,32.0,30.2,28.21,ENE,75,0.0,0.0,93,0.00,,---,0.10,VWS V14.01,2013-03-16 22:04:00,
2013-03-16 18:06:00,31.8,30.0,28.20,ENE,75,0.0,0.0,93,0.00,,---,0.10,VWS V14.01,2013-03-16 22:06:00,
2013-03-16 18:09:00,32.0,30.2,28.20,ENE,75,0.0,0.0,93,0.00,,---,0.10,VWS V14.01,2013-03-16 22:09:00,
2013-03-16 18:10:00,32.0,30.2,28.20,ENE,75,0.0,0.0,93,0.00,,---,0.10,VWS V14.01,2013-03-16 22:10:00,
2013-03-16 18:11:00,32.0,30.2,28.21,ENE,75,0.0,0.0,93,0.00,,---,0.10,VWS V14.01,2013-03-16 22:11:00,
2013-03-16 18:14:00,31.8,30.0,28.21,ENE,75,0.0,0.0,93,0.00,,---,0.10,VWS V14.01,2013-03-16 22:14:00,
2013-03-16 18:15:00,31.8,30.0,28.21,ENE,75,0.0,0.0,93,0.00,,---,0.10,VWS V14.01,2013-03-16 22:15:00,
2013-03-16 18:16:00,31.8,30.0,28.22,ENE,75,0.0,0.0,93,0.00,,---,0.10,VWS V14.01,2013-03-16 22:16:00,
2013-03-16 18:19:00,31.8,30.0,28.22,ENE,75,0.0,0.0,93,0.00,,---,0.10,VWS V14.01,2013-03-16 22:19:00,
2013-03-16 18:20:00,31.8,30.0,28.22,ENE,75,0.0,0.0,93,0.00,,---,0.10,VWS V14.01,2013-03-16 22:20:00,
2013-03-16 18:21:00,32.0,30.2,28.22,ENE,75,0.0,0.0,93,0.00,,---,0.10,VWS V14.01,2013-03-16 22:21:00,
2013-03-16 18:22:00,31.8,30.0,28.22,ENE,75,0.0,0.0,93,0.00,,---,0.10,VWS V14.01,2013-03-16 22:22:00,
2013-03-16 18:24:00,31.8,30.0,28.22,ENE,75,0.0,0.0,93,0.00,,---,0.10,VWS V14.01,2013-03-16 22:24:00,
2013-03-16 18:25:00,31.8,30.0,28.22,ENE,75,0.0,0.0,93,0.00,,---,0.10,VWS V14.01,2013-03-16 22:25:00,
2013-03-16 18:26:00,31.8,30.0,28.22,ENE,75,0.0,0.0,93,0.00,,---,0.10,VWS V14.01,2013-03-16 22:26:00,
2013-03-16 18:27:00,31.8,30.0,28.22,ENE,75,0.0,0.0,93,0.00,,---,0.10,VWS V14.01,2013-03-16 22:27:00,
2013-03-16 18:29:00,31.8,30.0,28.22,ENE,75,0.0,0.0,93,0.00,,---,0.10,VWS V14.01,2013-03-16 22:29:00,
2013-03-16 18:31:00,31.8,30.0,28.22,ENE,75,0.0,0.0,93,0.00,,---,0.10,VWS V14.01,2013-03-16 22:31:00,
2013-03-16 18:32:00,31.8,30.0,28.22,ENE,75,0.0,0.0,93,0.00,,---,0.10,VWS V14.01,2013-03-16 22:32:00,
2013-03-16 18:34:00,31.8,30.0,28.22,ENE,75,0.0,0.0,93,0.00,,---,0.10,VWS V14.01,2013-03-16 22:34:00,
2013-03-16 18:36:00,31.8,30.0,28.22,ENE,75,0.0,0.0,93,0.00,,---,0.10,VWS V14.01,2013-03-16 22:36:00,
2013-03-16 18:37:00,31.8,30.0,28.22,ENE,75,0.0,0.0,93,0.00,,---,0.10,VWS V14.01,2013-03-16 22:37:00,
2013-03-16 18:39:00,31.8,30.0,28.22,ENE,75,0.0,0.0,93,0.00,,---,0.10,VWS V14.01,2013-03-16 22:39:00,
2013-03-16 18:41:00,31.8,30.0,28.22,ENE,75,0.0,0.0,93,0.00,,---,0.10,VWS V14.01,2013-03-16 22:41:00,
2013-03-16 18:42:00,31.8,30.0,28.22,ENE,75,0.0,0.0,93,0.00,,---,0.10,VWS V14.01,2013-03-16 22:42:00,
2013-03-16 18:44:00,31.8,30.0,28.22,ENE,75,0.0,0.0,93,0.00,,---,0.10,VWS V14.01,2013-03-16 22:44:00,
2013-03-16 18:46:00,31.8,30.0,28.22,ENE,75,0.0,0.0,93,0.00,,---,0.10,VWS V14.01,2013-03-16 22:46:00,
2013-03-16 18:47:00,31.8,30.0,28.22,ENE,75,0.0,0.0,93,0.00,,---,0.10,VWS V14.01,2013-03-16 22:47:00,
2013-03-16 18:49:00,31.8,30.0,28.22,ENE,75,0.0,0.0,93,0.00,,---,0.10,VWS V14.01,2013-03-16 22:49:00,
2013-03-16 18:51:00,31.8,30.0,28.23,ENE,75,0.0,0.0,93,0.00,,---,0.10,VWS V14.01,2013-03-16 22:51:00,
2013-03-16 18:52:00,31.8,30.0,28.23,ENE,75,0.0,0.0,93,0.00,,---,0.10,VWS V14.01,2013-03-16 22:52:00,
2013-03-16 18:53:00,31.8,30.0,28.23,ENE,75,0.0,0.0,93,0.00,,---,0.10,VWS V14.01,2013-03-16 22:53:00,
2013-03-16 18:54:00,31.8,30.0,28.23,ENE,75,0.0,0.0,93,0.00,,---,0.10,VWS V14.01,2013-03-16 22:54:00,
2013-03-16 18:56:00,31.8,30.0,28.23,ENE,75,0.0,0.0,93,0.00,,---,0.10,VWS V14.01,2013-03-16 22:56:00,
2013-03-16 18:57:00,31.8,30.0,28.23,ENE,75,0.0,0.0,93,0.00,,---,0.10,VWS V14.01,2013-03-16 22:57:00,
2013-03-16 18:58:00,31.8,30.0,28.23,ENE,75,0.0,0.0,93,0.00,,---,0.10,VWS V14.01,2013-03-16 22:58:00,
2013-03-16 18:59:00,31.8,30.0,28.23,ENE,75,0.0,0.0,93,0.00,,---,0.10,VWS V14.01,2013-03-16 22:59:00,
2013-03-16 19:01:00,31.8,30.0,28.23,ENE,75,0.0,0.0,93,0.00,,---,0.10,VWS V14.01,2013-03-16 23:01:00,
2013-03-16 19:02:00,31.8,30.0,28.23,ENE,75,0.0,0.0,93,0.00,,---,0.10,VWS V14.01,2013-03-16 23:02:00,
2013-03-16 19:03:00,31.8,30.0,28.23,ENE,75,0.0,0.0,93,0.00,,---,0.10,VWS V14.01,2013-03-16 23:03:00,
2013-03-16 19:04:00,31.8,30.0,28.23,ENE,75,0.0,0.0,93,0.00,,---,0.10,VWS V14.01,2013-03-16 23:04:00,
2013-03-16 19:06:00,31.6,29.8,28.23,ENE,75,0.0,0.0,93,0.00,,---,0.10,VWS V14.01,2013-03-16 23:06:00,
2013-03-16 19:07:00,31.6,29.8,28.23,ENE,75,0.0,0.0,93,0.00,,---,0.10,VWS V14.01,2013-03-16 23:07:00,
2013-03-16 19:08:00,31.8,30.0,28.23,ENE,75,0.0,0.0,93,0.00,,---,0.10,VWS V14.01,2013-03-16 23:08:00,
2013-03-16 19:09:00,31.6,29.8,28.23,ENE,75,0.0,0.0,93,0.00,,---,0.10,VWS V14.01,2013-03-16 23:09:00,
2013-03-16 19:11:00,31.6,29.8,28.23,ENE,75,0.0,0.0,93,0.00,,---,0.10,VWS V14.01,2013-03-16 23:11:00,
2013-03-16 19:12:00,31.6,29.8,28.23,ENE,75,0.0,0.0,93,0.00,,---,0.10,VWS V14.01,2013-03-16 23:12:00,
2013-03-16 19:13:00,31.6,29.8,28.23,ENE,75,0.0,0.0,93,0.00,,---,0.10,VWS V14.01,2013-03-16 23:13:00,
2013-03-16 19:14:00,31.6,29.8,28.23,ENE,75,0.0,0.0,93,0.00,,---,0.10,VWS V14.01,2013-03-16 23:14:00,
2013-03-16 19:16:00,31.6,29.8,28.23,ENE,75,0.0,0.0,93,0.00,,---,0.10,VWS V14.01,2013-03-16 23:16:00,
2013-03-16 19:17:00,31.6,29.8,28.24,ENE,75,0.0,0.0,93,0.00,,---,0.10,VWS V14.01,2013-03-16 23:17:00,
2013-03-16 19:18:00,31.6,29.8,28.24,ENE,75,0.0,0.0,93,0.00,,---,0.10,VWS V14.01,2013-03-16 23:18:00,
2013-03-16 19:19:00,31.6,29.8,28.24,ENE,75,0.0,0.0,93,0.00,,---,0.10,VWS V14.01,2013-03-16 23:19:00,
2013-03-16 19:21:00,31.6,29.8,28.24,ENE,75,0.0,0.0,93,0.00,,---,0.10,VWS V14.01,2013-03-16 23:21:00,
2013-03-16 19:23:00,31.6,29.8,28.24,ENE,75,0.0,0.0,93,0.00,,---,0.10,VWS V14.01,2013-03-16 23:23:00,
2013-03-16 19:24:00,31.6,29.8,28.24,ENE,75,0.0,0.0,93,0.00,,---,0.10,VWS V14.01,2013-03-16 23:24:00,
2013-03-16 19:26:00,31.6,29.8,28.24,ENE,75,0.0,0.0,93,0.00,,---,0.10,VWS V14.01,2013-03-16 23:26:00,
2013-03-16 19:28:00,31.6,29.8,28.25,ENE,75,0.0,0.0,93,0.00,,---,0.10,VWS V14.01,2013-03-16 23:28:00,
2013-03-16 19:29:00,31.6,29.8,28.25,ENE,75,0.0,0.0,93,0.00,,---,0.10,VWS V14.01,2013-03-16 23:29:00,
2013-03-16 19:31:00,31.6,29.8,28.25,ENE,75,0.0,0.0,93,0.00,,---,0.10,VWS V14.01,2013-03-16 23:31:00,
2013-03-16 19:33:00,31.6,29.8,28.25,ENE,75,0.0,0.0,93,0.00,,---,0.10,VWS V14.01,2013-03-16 23:33:00,
2013-03-16 19:34:00,31.6,29.8,28.25,ENE,75,0.0,0.0,93,0.00,,---,0.10,VWS V14.01,2013-03-16 23:34:00,
2013-03-16 19:37:00,31.6,29.8,28.25,ENE,75,0.0,0.0,93,0.00,,---,0.10,VWS V14.01,2013-03-16 23:37:00,
2013-03-16 19:38:00,31.6,29.8,28.25,ENE,75,0.0,0.0,93,0.00,,---,0.10,VWS V14.01,2013-03-16 23:38:00,
2013-03-16 19:39:00,31.6,29.8,28.25,ENE,75,0.0,0.0,93,0.00,,---,0.10,VWS V14.01,2013-03-16 23:39:00,
2013-03-16 19:42:00,31.6,29.8,28.25,ENE,75,0.0,0.0,93,0.00,,---,0.10,VWS V14.01,2013-03-16 23:42:00,
2013-03-16 19:43:00,31.6,29.8,28.25,ENE,75,0.0,0.0,93,0.00,,---,0.10,VWS V14.01,2013-03-16 23:43:00,
2013-03-16 19:44:00,31.6,29.8,28.25,ENE,75,0.0,0.0,93,0.00,,---,0.10,VWS V14.01,2013-03-16 23:44:00,
2013-03-16 19:47:00,31.6,29.8,28.26,ENE,75,0.0,0.0,93,0.00,,---,0.10,VWS V14.01,2013-03-16 23:47:00,
2013-03-16 19:48:00,31.6,29.8,28.26,ENE,75,0.0,0.0,93,0.00,,---,0.10,VWS V14.01,2013-03-16 23:48:00,
2013-03-16 19:49:00,31.6,29.8,28.26,ENE,75,0.0,0.0,93,0.00,,---,0.10,VWS V14.01,2013-03-16 23:49:00,
2013-03-16 19:52:00,31.6,29.8,28.26,ENE,75,0.0,0.0,93,0.00,,---,0.10,VWS V14.01,2013-03-16 23:52:00,
2013-03-16 19:53:00,31.6,29.8,28.26,ENE,75,0.0,0.0,93,0.00,,---,0.10,VWS V14.01,2013-03-16 23:53:00,
2013-03-16 19:54:00,31.6,29.8,28.26,ENE,75,0.0,0.0,93,0.00,,---,0.10,VWS V14.01,2013-03-16 23:54:00,
2013-03-16 19:57:00,31.6,29.8,28.27,ENE,75,0.0,0.0,93,0.00,,---,0.10,VWS V14.01,2013-03-16 23:57:00,
2013-03-16 19:58:00,31.5,29.7,28.26,ENE,75,0.0,0.0,93,0.00,,---,0.10,VWS V14.01,2013-03-16 23:58:00,
2013-03-16 19:59:00,31.6,29.8,28.26,ENE,75,0.0,0.0,93,0.00,,---,0.10,VWS V14.01,2013-03-16 23:59:00,
2013-03-16 20:00:00,31.6,29.8,29.06,ENE,75,0.0,1.0,93,0.00,,,0.10,meteohub,2013-03-17 00:00:00,
2013-03-16 20:02:00,31.5,29.7,28.27,ENE,75,0.0,0.0,93,0.00,,---,0.10,VWS V14.01,2013-03-17 00:02:00,
2013-03-16 20:03:00,31.5,29.7,28.27,ENE,75,0.0,0.0,93,0.00,,---,0.10,VWS V14.01,2013-03-17 00:03:00,
2013-03-16 20:04:00,31.5,29.7,28.27,ENE,75,0.0,0.0,93,0.00,,---,0.10,VWS V14.01,2013-03-17 00:04:00,
2013-03-16 20:07:00,31.5,29.7,28.27,ENE,75,0.0,0.0,93,0.00,,---,0.10,VWS V14.01,2013-03-17 00:07:00,
2013-03-16 20:08:00,31.5,29.7,28.27,ENE,75,0.0,0.0,93,0.00,,---,0.10,VWS V14.01,2013-03-17 00:08:00,
2013-03-16 20:09:00,31.6,29.8,28.27,ENE,75,0.0,0.0,93,0.00,,---,0.10,VWS V14.01,2013-03-17 00:09:00,
2013-03-16 20:12:00,31.6,29.8,28.27,ENE,75,0.0,0.0,93,0.00,,---,0.10,VWS V14.01,2013-03-17 00:12:00,
2013-03-16 20:13:00,31.6,29.8,28.27,ENE,75,0.0,0.0,93,0.00,,---,0.10,VWS V14.01,2013-03-17 00:13:00,
2013-03-16 20:14:00,31.6,29.8,28.27,ENE,75,0.0,0.0,93,0.00,,---,0.10,VWS V14.01,2013-03-17 00:14:00,
2013-03-16 20:17:00,31.5,29.7,28.27,ENE,75,0.0,0.0,93,0.00,,---,0.10,VWS V14.01,2013-03-17 00:17:00,
2013-03-16 20:18:00,31.5,29.7,28.27,ENE,75,0.0,0.0,93,0.00,,---,0.10,VWS V14.01,2013-03-17 00:18:00,
2013-03-16 20:19:00,31.6,29.8,28.27,ENE,75,0.0,0.0,93,0.00,,---,0.10,VWS V14.01,2013-03-17 00:19:00,
2013-03-16 20:22:00,31.6,29.8,28.28,ENE,75,0.0,0.0,93,0.00,,---,0.10,VWS V14.01,2013-03-17 00:22:00,
2013-03-16 20:23:00,31.6,29.8,28.28,ENE,75,0.0,0.0,93,0.00,,---,0.10,VWS V14.01,2013-03-17 00:23:00,
2013-03-16 20:24:00,31.6,29.8,28.28,ENE,75,0.0,0.0,93,0.00,,---,0.10,VWS V14.01,2013-03-17 00:24:00,
2013-03-16 20:28:00,31.5,29.7,28.29,ENE,75,0.0,0.0,93,0.00,,---,0.10,VWS V14.01,2013-03-17 00:28:00,
2013-03-16 20:29:00,31.6,29.8,28.29,ENE,75,0.0,0.0,93,0.00,,---,0.10,VWS V14.01,2013-03-17 00:29:00,
2013-03-16 20:33:00,31.6,29.8,28.29,ENE,75,0.0,0.0,93,0.00,,---,0.10,VWS V14.01,2013-03-17 00:33:00,
2013-03-16 20:34:00,31.6,29.8,28.29,ENE,75,0.0,0.0,93,0.00,,---,0.10,VWS V14.01,2013-03-17 00:34:00,
2013-03-16 20:38:00,31.6,29.8,28.29,ENE,75,0.0,0.0,93,0.00,,---,0.10,VWS V14.01,2013-03-17 00:38:00,
2013-03-16 20:39:00,31.6,29.8,28.29,ENE,75,0.0,0.0,93,0.00,,---,0.10,VWS V14.01,2013-03-17 00:39:00,
2013-03-16 20:43:00,31.6,29.8,28.29,ENE,75,0.0,0.0,93,0.00,,---,0.10,VWS V14.01,2013-03-17 00:43:00,
2013-03-16 20:44:00,31.6,29.8,28.29,ENE,75,0.0,0.0,93,0.00,,---,0.10,VWS V14.01,2013-03-17 00:44:00,
2013-03-16 20:48:00,31.6,29.8,28.29,ENE,75,0.0,0.0,93,0.00,,---,0.10,VWS V14.01,2013-03-17 00:48:00,
2013-03-16 20:49:00,31.6,29.8,28.30,ENE,75,0.0,0.0,93,0.00,,---,0.10,VWS V14.01,2013-03-17 00:49:00,
2013-03-16 20:53:00,31.6,29.8,28.30,ENE,75,0.0,0.0,93,0.00,,---,0.10,VWS V14.01,2013-03-17 00:53:00,
2013-03-16 20:54:00,31.6,29.8,28.30,ENE,75,0.0,0.0,93,0.00,,---,0.10,VWS V14.01,2013-03-17 00:54:00,
2013-03-16 20:55:00,31.6,29.8,28.30,ENE,75,0.0,0.0,93,0.00,,---,0.10,VWS V14.01,2013-03-17 00:55:00,
2013-03-16 20:58:00,31.6,29.8,28.30,ENE,75,0.0,0.0,93,0.00,,---,0.10,VWS V14.01,2013-03-17 00:58:00,
2013-03-16 20:59:00,31.6,29.8,28.30,ENE,75,0.0,0.0,93,0.00,,---,0.10,VWS V14.01,2013-03-17 00:59:00,
2013-03-16 21:00:00,31.6,29.8,28.30,ENE,75,0.0,0.0,93,0.00,,---,0.10,VWS V14.01,2013-03-17 01:00:00,
2013-03-16 21:04:00,31.6,29.8,28.30,ENE,75,0.0,0.0,93,0.00,,---,0.10,VWS V14.01,2013-03-17 01:04:00,
2013-03-16 21:05:00,31.6,29.8,28.31,ENE,75,0.0,0.0,93,0.00,,---,0.10,VWS V14.01,2013-03-17 01:05:00,
2013-03-16 21:09:00,31.6,29.8,28.31,ENE,75,0.0,0.0,93,0.00,,---,0.10,VWS V14.01,2013-03-17 01:09:00,
2013-03-16 21:10:00,31.6,29.8,28.31,ENE,75,0.0,0.0,93,0.00,,---,0.10,VWS V14.01,2013-03-17 01:10:00,
2013-03-16 21:14:00,31.6,30.1,28.31,ENE,75,0.0,0.0,94,0.00,,---,0.10,VWS V14.01,2013-03-17 01:14:00,
2013-03-16 21:15:00,31.6,30.1,28.31,ENE,75,0.0,0.0,94,0.00,,---,0.10,VWS V14.01,2013-03-17 01:15:00,
2013-03-16 21:19:00,31.6,30.1,28.31,East,94,0.0,0.0,94,0.00,,---,0.10,VWS V14.01,2013-03-17 01:19:00,
2013-03-16 21:20:00,31.6,30.1,28.31,East,94,0.0,0.0,94,0.00,,---,0.10,VWS V14.01,2013-03-17 01:20:00,
2013-03-16 21:24:00,31.6,30.1,28.31,East,94,0.0,0.0,94,0.00,,---,0.10,VWS V14.01,2013-03-17 01:24:00,
2013-03-16 21:25:00,31.6,29.8,28.31,East,94,0.0,0.0,93,0.00,,---,0.10,VWS V14.01,2013-03-17 01:25:00,
2013-03-16 21:29:00,31.6,30.1,28.31,East,94,0.0,0.0,94,0.00,,---,0.10,VWS V14.01,2013-03-17 01:29:00,
2013-03-16 21:30:00,31.6,30.1,28.31,East,94,0.0,0.0,94,0.00,,---,0.10,VWS V14.01,2013-03-17 01:30:00,
2013-03-16 21:34:00,31.6,30.1,28.31,East,94,0.0,0.0,94,0.00,,---,0.10,VWS V14.01,2013-03-17 01:34:00,
2013-03-16 21:35:00,31.6,30.1,28.31,East,94,0.0,0.0,94,0.00,,---,0.10,VWS V14.01,2013-03-17 01:35:00,
2013-03-16 21:39:00,31.6,30.1,28.32,East,94,0.0,0.0,94,0.00,,---,0.10,VWS V14.01,2013-03-17 01:39:00,
2013-03-16 21:40:00,31.6,30.1,28.32,East,94,0.0,0.0,94,0.00,,---,0.10,VWS V14.01,2013-03-17 01:40:00,
2013-03-16 21:45:00,31.6,30.1,28.33,East,94,0.0,0.0,94,0.00,,---,0.10,VWS V14.01,2013-03-17 01:45:00,
2013-03-16 21:50:00,31.6,30.1,28.33,East,94,0.0,0.0,94,0.00,,---,0.10,VWS V14.01,2013-03-17 01:50:00,
2013-03-16 21:55:00,31.6,30.1,28.33,East,94,0.0,0.0,94,0.00,,---,0.10,VWS V14.01,2013-03-17 01:55:00,
2013-03-16 22:00:00,31.6,30.1,28.34,East,94,0.0,0.0,94,0.00,,---,0.10,VWS V14.01,2013-03-17 02:00:00,
2013-03-16 22:05:00,31.6,30.1,28.34,East,94,0.0,0.0,94,0.00,,---,0.10,VWS V14.01,2013-03-17 02:05:00,
2013-03-16 22:10:00,31.6,30.1,28.35,East,94,0.0,0.0,94,0.00,,---,0.10,VWS V14.01,2013-03-17 02:10:00,
2013-03-16 22:15:00,31.6,30.2,29.15,East,94,0.0,2.0,94,0.00,,,0.10,meteohub,2013-03-17 02:15:00,
2013-03-16 22:16:00,31.6,30.1,28.35,East,94,0.0,0.0,94,0.00,,---,0.10,VWS V14.01,2013-03-17 02:16:00,
2013-03-16 22:20:00,31.6,30.1,28.35,East,94,0.0,0.0,94,0.00,,---,0.10,VWS V14.01,2013-03-17 02:20:00,
2013-03-16 22:21:00,31.6,30.1,28.35,East,94,0.0,0.0,94,0.00,,---,0.10,VWS V14.01,2013-03-17 02:21:00,
2013-03-16 22:22:00,31.6,30.1,28.35,East,94,0.0,0.0,94,0.00,,---,0.10,VWS V14.01,2013-03-17 02:22:00,
2013-03-16 22:25:00,31.6,30.1,28.35,East,94,0.0,0.0,94,0.00,,---,0.10,VWS V14.01,2013-03-17 02:25:00,
2013-03-16 22:26:00,31.6,30.1,28.35,East,94,0.0,0.0,94,0.00,,---,0.10,VWS V14.01,2013-03-17 02:26:00,
2013-03-16 22:27:00,31.6,30.1,28.35,East,94,0.0,0.0,94,0.00,,---,0.10,VWS V14.01,2013-03-17 02:27:00,
2013-03-16 22:31:00,31.6,30.1,28.35,East,94,0.0,0.0,94,0.00,,---,0.10,VWS V14.01,2013-03-17 02:31:00,
2013-03-16 22:32:00,31.6,30.1,28.35,East,94,0.0,0.0,94,0.00,,---,0.10,VWS V14.01,2013-03-17 02:32:00,
2013-03-16 22:36:00,31.6,30.1,28.35,East,94,0.0,0.0,94,0.00,,---,0.10,VWS V14.01,2013-03-17 02:36:00,
2013-03-16 22:37:00,31.6,30.1,28.35,East,94,0.0,0.0,94,0.00,,---,0.10,VWS V14.01,2013-03-17 02:37:00,
2013-03-16 22:38:00,31.6,30.1,28.35,East,94,0.0,0.0,94,0.00,,---,0.10,VWS V14.01,2013-03-17 02:38:00,
2013-03-16 22:41:00,31.6,30.1,28.35,East,94,0.0,0.0,94,0.00,,---,0.10,VWS V14.01,2013-03-17 02:41:00,
2013-03-16 22:42:00,31.6,30.1,28.35,East,94,0.0,0.0,94,0.00,,---,0.10,VWS V14.01,2013-03-17 02:42:00,
2013-03-16 22:43:00,31.6,30.1,28.36,East,94,0.0,0.0,94,0.00,,---,0.10,VWS V14.01,2013-03-17 02:43:00,
2013-03-16 22:46:00,31.6,30.1,28.36,East,94,0.0,0.0,94,0.00,,---,0.10,VWS V14.01,2013-03-17 02:46:00,
2013-03-16 22:47:00,31.6,30.1,28.36,East,94,0.0,0.0,94,0.00,,---,0.10,VWS V14.01,2013-03-17 02:47:00,
2013-03-16 22:48:00,31.6,30.1,28.36,East,94,0.0,0.0,94,0.00,,---,0.10,VWS V14.01,2013-03-17 02:48:00,
2013-03-16 22:51:00,31.6,30.1,28.36,East,94,0.0,0.0,94,0.00,,---,0.10,VWS V14.01,2013-03-17 02:51:00,
2013-03-16 22:52:00,31.6,30.1,28.36,East,94,0.0,0.0,94,0.00,,---,0.10,VWS V14.01,2013-03-17 02:52:00,
2013-03-16 22:53:00,31.6,30.1,28.36,East,94,0.0,0.0,94,0.00,,---,0.10,VWS V14.01,2013-03-17 02:53:00,
2013-03-16 22:56:00,31.6,30.1,28.36,East,94,0.0,0.0,94,0.00,,---,0.10,VWS V14.01,2013-03-17 02:56:00,
2013-03-16 22:57:00,31.6,30.1,28.36,East,94,0.0,0.0,94,0.00,,---,0.10,VWS V14.01,2013-03-17 02:57:00,
2013-03-16 22:58:00,31.6,30.1,28.36,East,94,0.0,0.0,94,0.00,,---,0.10,VWS V14.01,2013-03-17 02:58:00,
2013-03-16 23:02:00,31.6,30.1,28.36,East,94,0.0,0.0,94,0.00,,---,0.10,VWS V14.01,2013-03-17 03:02:00,
2013-03-16 23:03:00,31.6,30.1,28.36,East,94,0.0,0.0,94,0.00,,---,0.10,VWS V14.01,2013-03-17 03:03:00,
2013-03-16 23:07:00,31.6,30.1,28.36,East,94,0.0,0.0,94,0.00,,---,0.10,VWS V14.01,2013-03-17 03:07:00,
2013-03-16 23:08:00,31.6,30.1,28.36,East,94,0.0,0.0,94,0.00,,---,0.10,VWS V14.01,2013-03-17 03:08:00,
2013-03-16 23:12:00,31.6,30.1,28.37,East,94,0.0,0.0,94,0.00,,---,0.10,VWS V14.01,2013-03-17 03:12:00,
2013-03-16 23:13:00,31.6,30.1,28.37,East,94,0.0,0.0,94,0.00,,---,0.10,VWS V14.01,2013-03-17 03:13:00,
2013-03-16 23:17:00,31.6,30.1,28.37,East,94,0.0,0.0,94,0.00,,---,0.10,VWS V14.01,2013-03-17 03:17:00,
2013-03-16 23:18:00,31.6,30.1,28.37,East,94,0.0,0.0,94,0.00,,---,0.10,VWS V14.01,2013-03-17 03:18:00,
2013-03-16 23:22:00,31.6,30.1,28.37,East,94,0.0,0.0,94,0.00,,---,0.10,VWS V14.01,2013-03-17 03:22:00,
2013-03-16 23:23:00,31.6,30.1,28.37,East,94,0.0,0.0,94,0.00,,---,0.10,VWS V14.01,2013-03-17 03:23:00,
2013-03-16 23:24:00,31.6,30.1,28.37,East,94,0.0,0.0,94,0.00,,---,0.10,VWS V14.01,2013-03-17 03:24:00,
2013-03-16 23:27:00,31.6,30.1,28.38,East,94,0.0,0.0,94,0.00,,---,0.10,VWS V14.01,2013-03-17 03:27:00,
2013-03-16 23:28:00,31.6,30.1,28.37,East,94,0.0,0.0,94,0.00,,---,0.10,VWS V14.01,2013-03-17 03:28:00,
2013-03-16 23:29:00,31.6,30.1,28.38,East,94,0.0,0.0,94,0.00,,---,0.10,VWS V14.01,2013-03-17 03:29:00,
2013-03-16 23:32:00,31.6,30.1,28.38,East,94,0.0,0.0,94,0.00,,---,0.10,VWS V14.01,2013-03-17 03:32:00,
2013-03-16 23:33:00,31.6,30.1,28.38,East,94,0.0,0.0,94,0.00,,---,0.10,VWS V14.01,2013-03-17 03:33:00,
2013-03-16 23:34:00,31.6,30.1,28.38,East,94,0.0,0.0,94,0.00,,---,0.10,VWS V14.01,2013-03-17 03:34:00,
2013-03-16 23:37:00,31.6,30.1,28.38,East,94,0.0,0.0,94,0.00,,---,0.10,VWS V14.01,2013-03-17 03:37:00,
2013-03-16 23:38:00,31.6,30.1,28.38,East,94,0.0,0.0,94,0.00,,---,0.10,VWS V14.01,2013-03-17 03:38:00,
2013-03-16 23:39:00,31.6,30.1,28.38,East,94,0.0,0.0,94,0.00,,---,0.10,VWS V14.01,2013-03-17 03:39:00,
2013-03-16 23:42:00,31.6,30.1,28.37,East,94,0.0,0.0,94,0.00,,---,0.10,VWS V14.01,2013-03-17 03:42:00,
2013-03-16 23:43:00,31.6,30.1,28.38,East,94,0.0,0.0,94,0.00,,---,0.10,VWS V14.01,2013-03-17 03:43:00,
2013-03-16 23:44:00,31.6,30.1,28.38,East,94,0.0,0.0,94,0.00,,---,0.10,VWS V14.01,2013-03-17 03:44:00,
2013-03-16 23:47:00,31.6,30.1,28.38,East,94,0.0,0.0,94,0.00,,---,0.10,VWS V14.01,2013-03-17 03:47:00,
2013-03-16 23:48:00,31.6,30.1,28.38,East,94,0.0,0.0,94,0.00,,---,0.10,VWS V14.01,2013-03-17 03:48:00,
2013-03-16 23:49:00,31.6,30.1,28.38,East,94,0.0,0.0,94,0.00,,---,0.10,VWS V14.01,2013-03-17 03:49:00,
2013-03-16 23:52:00,31.6,30.1,28.38,East,94,0.0,0.0,94,0.00,,---,0.10,VWS V14.01,2013-03-17 03:52:00,
2013-03-16 23:53:00,31.6,30.1,28.38,East,94,0.0,0.0,94,0.00,,---,0.10,VWS V14.01,2013-03-17 03:53:00,
2013-03-16 23:54:00,31.6,30.1,28.38,East,94,0.0,0.0,94,0.00,,---,0.10,VWS V14.01,2013-03-17 03:54:00,
2013-03-16 23:57:00,31.6,30.1,28.38,East,94,0.0,0.0,94,0.00,,---,0.10,VWS V14.01,2013-03-17 03:57:00,
2013-03-16 23:58:00,31.6,30.1,28.38,East,94,0.0,0.0,94,0.00,,---,0.10,VWS V14.01,2013-03-17 03:58:00,
2013-03-16 23:59:00,31.6,30.1,28.38,East,94,0.0,0.0,94,0.00,,---,0.10,VWS V14.01,2013-03-17 03:59:00,